GFSNE_250_spd_000.txt.gz
Wind_Speed
73 72 74 77 80 83 86 90 92 91 91 95 99 103 108 106 106 96 79 62 61 61 66 70 68 65 67 68 73 77 76 78 85 89 93 97 97 90
75 76 75 76 80 86 91 94 97 101 97 101 103 104 105 109 108 96 80 59 58 59 65 66 66 64 66 74 76 74 76 82 89 94 98 98 95 91
78 78 80 82 84 89 96 101 103 106 105 100 107 107 106 105 103 96 82 65 58 60 66 70 69 70 75 75 70 74 80 88 94 99 96 95 93 90
81 83 85 87 90 95 101 105 108 109 111 106 109 109 106 104 98 89 80 65 57 58 63 66 73 76 77 68 71 76 85 92 96 95 99 98 95 94
86 86 89 92 94 98 103 109 113 113 116 112 106 110 104 101 92 82 75 65 58 59 60 68 73 74 74 72 76 80 90 92 97 98 98 96 93 99
92 96 96 99 101 103 106 109 115 118 120 115 113 109 101 92 81 74 72 64 59 57 59 69 72 74 76 79 79 88 91 94 99 99 98 95 95 104
101 105 107 108 109 111 112 111 117 118 117 115 109 105 98 84 71 68 70 65 59 54 58 70 74 77 79 83 82 92 94 97 98 99 102 99 100 105
109 112 114 116 118 117 118 118 117 113 111 108 100 99 86 76 64 65 67 62 58 58 60 67 76 75 80 82 87 95 96 100 100 104 104 99 102 104
118 119 120 122 124 123 119 114 113 105 101 103 96 89 78 66 61 62 63 61 58 60 65 70 75 78 79 82 92 98 101 101 104 104 102 102 107 103
123 122 123 122 122 121 116 109 102 102 100 93 89 79 67 57 51 60 59 59 57 62 67 75 76 77 80 90 96 100 102 104 110 108 100 105 104 99
122 122 120 116 112 109 106 103 101 98 87 82 76 63 58 58 57 55 57 54 62 63 71 75 75 80 84 90 97 100 103 108 106 98 104 103 96 98
112 112 114 115 107 101 98 93 87 76 75 73 63 54 56 54 52 51 52 54 63 67 73 75 79 79 84 93 99 103 106 104 101 102 100 95 95 96
107 106 100 97 86 80 82 76 72 69 66 58 53 53 52 48 46 50 51 59 64 70 76 76 75 81 89 95 99 104 105 95 100 96 95 92 92 95
97 92 86 81 77 71 69 60 55 55 52 51 52 47 46 44 46 50 55 61 69 72 72 74 78 86 93 97 99 102 94 96 96 93 92 89 90 88
77 72 70 68 67 64 60 57 53 50 49 51 48 45 43 41 42 47 56 58 63 65 68 76 83 88 90 96 99 90 95 92 88 89 86 87 87 80
72 66 63 62 62 58 54 50 49 49 49 47 44 41 39 42 45 51 58 60 65 70 76 80 85 85 90 91 87 91 88 87 86 87 89 86 82 71
68 62 58 55 53 48 48 47 49 45 43 42 39 37 44 49 53 58 60 67 69 72 78 78 80 83 79 82 86 87 84 85 85 88 86 78 68 65
57 54 52 50 46 44 44 46 44 40 39 38 36 40 45 54 57 62 64 63 62 67 72 72 70 73 77 80 78 82 84 85 83 80 76 69 61 59
50 47 46 45 43 42 42 42 39 37 34 32 33 37 42 45 50 52 50 49 54 59 61 63 70 74 78 76 75 80 82 81 77 70 63 56 55 52
41 39 41 42 41 39 39 38 37 34 30 32 29 22 25 41 40 39 38 44 48 54 58 65 69 70 71 74 80 75 78 78 73 65 58 50 44 41
37 34 34 35 36 36 36 35 33 32 31 31 29 33 42 40 32 31 38 41 48 53 57 61 63 66 70 75 76 75 71 68 61 55 51 44 35 25
36 32 31 31 31 29 32 33 32 31 27 27 27 23 26 26 31 32 36 42 45 51 57 58 62 67 72 74 73 71 67 53 46 43 43 38 29 21
36 33 30 30 29 28 32 32 31 29 29 25 25 27 22 22 28 33 38 44 47 51 56 60 65 70 72 71 67 61 54 47 44 38 31 32 29 24

GFSNE_250_spd_003.txt.gz
Wind_Speed
104 106 110 106 96 90 86 82 84 79 77 82 83 91 91 93 99 103 103 101 103 104 101 93 85 75 66 60 60 58 57 56 60 64 67 68 70 74
113 113 107 98 95 87 84 84 88 86 78 83 84 91 93 94 97 104 105 106 106 103 99 91 82 70 66 64 59 54 56 58 62 65 67 72 71 77
116 101 90 88 86 83 86 86 88 91 91 82 89 94 97 98 99 103 107 107 106 105 100 93 80 70 62 61 57 54 56 59 63 66 69 73 74 82
105 89 80 77 81 83 84 86 90 95 100 97 95 101 102 105 107 108 109 105 104 100 95 89 78 69 62 62 58 53 59 63 66 71 73 77 81 88
91 93 94 93 88 87 88 89 93 96 101 104 101 105 105 106 111 113 111 103 100 95 91 83 74 68 63 62 61 55 59 63 71 72 77 80 86 94
103 101 101 104 100 101 102 102 103 102 102 104 107 108 110 110 112 112 109 102 98 92 81 73 73 68 63 62 67 62 64 68 73 76 81 84 91 96
114 113 113 114 113 112 112 111 113 113 112 111 111 113 113 107 104 111 105 101 94 78 74 69 69 68 66 63 67 67 68 70 74 81 82 90 94 99
123 122 121 120 121 122 121 118 117 116 114 112 107 104 100 99 94 95 95 91 87 73 68 66 66 67 67 67 68 69 69 73 78 82 87 92 97 101
120 119 121 119 118 115 113 110 109 108 105 102 95 87 89 91 90 88 88 83 75 67 66 63 64 67 67 67 69 66 70 77 80 87 91 94 99 103
113 112 107 103 103 101 99 98 100 99 95 93 85 84 83 83 79 83 81 73 71 64 61 59 62 66 66 70 69 70 72 77 86 91 91 96 103 105
113 111 110 105 101 98 91 84 82 82 83 81 79 77 73 67 68 69 66 67 66 62 65 61 61 64 68 72 68 68 75 85 89 89 94 102 103 107
102 102 97 89 88 86 81 77 71 72 74 72 69 63 60 59 61 61 59 58 57 57 61 60 60 63 68 70 69 76 81 85 86 90 100 102 105 102
86 87 83 81 76 72 73 66 61 59 60 57 55 51 53 54 52 52 50 51 52 57 59 61 61 67 67 69 74 78 82 83 90 96 101 102 97 97
79 75 74 71 67 67 63 58 53 52 53 51 47 45 47 46 46 45 47 49 51 54 57 59 62 67 66 70 76 82 85 91 94 100 99 93 95 92
68 67 64 62 60 61 58 54 50 47 47 45 44 46 45 42 43 43 46 50 53 54 55 59 62 65 68 74 79 82 90 94 96 93 93 93 90 90
63 61 59 58 56 57 57 53 49 45 43 42 43 42 38 39 40 42 47 51 52 56 58 57 57 65 71 77 82 88 92 91 87 88 91 87 86 84
61 55 51 48 47 47 46 45 42 41 39 36 35 35 37 37 41 44 44 45 49 51 54 58 64 68 72 77 82 85 83 82 85 85 85 84 82 75
55 52 49 46 44 43 43 40 39 37 34 33 33 35 36 37 40 46 48 51 55 58 59 64 67 70 73 78 75 75 80 82 79 80 79 79 72 61
44 42 41 38 37 39 38 35 35 34 33 33 32 31 34 37 42 48 49 52 55 58 60 63 65 64 65 64 67 74 79 78 77 76 73 68 60 51
46 44 42 38 35 34 34 32 33 33 32 30 29 31 35 38 45 50 50 49 52 53 54 54 55 57 59 65 69 70 74 73 74 70 64 55 48 44
42 40 39 35 31 30 28 31 33 32 30 28 30 31 35 37 45 46 32 24 30 36 39 47 50 56 64 66 68 69 68 68 65 61 54 49 40 38
35 34 33 30 26 25 26 28 27 27 27 28 30 30 34 33 32 25 29 34 37 38 44 47 53 58 59 62 66 69 65 55 51 50 45 41 37 30
29 27 26 24 23 22 23 23 24 24 25 27 28 30 30 26 16 24 27 28 34 40 47 54 57 57 59 62 65 60 52 47 45 40 35 32 29 23

GFSNE_250_spd_006.txt.gz
Wind_Speed
114 117 118 120 122 122 123 123 119 106 96 88 77 77 80 82 85 90 90 90 90 90 92 94 95 95 97 103 104 99 91 76 65 63 63 60 55 57
119 120 123 123 122 121 119 105 102 102 95 85 80 80 83 84 85 87 89 91 93 96 97 97 96 98 99 103 104 99 87 73 64 63 65 61 59 62
127 126 120 118 112 109 112 106 110 106 103 85 90 90 93 94 93 95 97 97 98 98 100 102 103 102 102 101 99 93 79 70 64 63 65 66 66 62
125 124 123 121 122 122 117 114 112 109 108 97 97 98 101 102 101 101 105 105 105 105 108 104 105 108 105 101 93 84 72 68 65 64 64 66 66 65
133 131 130 129 127 127 123 116 116 114 111 109 103 106 106 108 107 107 108 111 109 108 108 107 106 104 102 96 87 75 69 65 64 62 63 63 65 72
133 132 131 128 121 119 114 111 106 104 105 104 103 98 106 110 110 105 103 105 104 108 104 106 103 101 96 89 76 71 67 64 67 65 62 62 68 71
126 123 124 118 117 113 104 100 94 93 92 92 92 91 91 95 99 100 96 95 92 94 94 103 97 87 80 79 70 65 64 66 69 70 65 65 70 73
127 128 122 117 113 105 102 99 95 91 91 92 88 86 88 87 88 87 87 88 81 85 89 89 89 81 77 74 68 65 67 64 67 70 69 68 72 73
123 116 109 106 101 97 92 90 88 87 85 83 79 78 78 81 83 82 82 82 80 78 80 83 82 74 72 70 67 65 64 66 67 71 66 66 71 80
99 98 91 89 89 88 85 81 79 78 81 77 73 69 73 72 73 76 76 77 76 73 76 77 72 68 72 71 69 64 62 66 68 67 66 70 78 81
88 89 87 83 82 77 72 68 66 68 70 69 70 68 64 64 65 64 67 69 65 66 69 68 58 63 70 70 70 68 68 67 68 67 71 74 78 83
79 81 80 79 75 73 67 63 56 60 62 61 57 56 56 57 55 55 57 55 53 57 55 52 54 57 66 68 70 68 65 67 69 69 70 75 82 86
71 72 72 69 66 64 60 54 50 53 56 50 52 53 48 45 47 46 45 46 47 48 49 47 49 55 62 66 69 67 68 67 66 70 73 79 83 88
65 67 67 65 63 60 56 52 47 45 45 46 48 46 43 42 44 43 42 42 40 41 43 44 49 54 57 65 69 69 70 69 71 71 78 82 85 89
63 60 61 60 58 56 53 50 46 43 43 44 44 42 40 40 41 41 40 38 39 40 40 42 46 49 55 61 66 64 70 70 72 76 80 84 88 90
60 56 53 52 51 49 46 42 39 38 38 38 39 38 38 38 40 39 38 38 37 38 39 42 44 48 53 59 62 61 66 71 74 80 83 86 89 89
60 53 50 48 46 43 40 38 38 38 37 36 35 33 32 32 34 35 35 34 35 36 38 42 48 52 56 60 64 69 71 74 79 83 85 84 83 82
55 51 47 43 41 37 33 32 33 33 33 32 28 27 27 27 28 31 33 34 37 40 44 47 50 55 59 60 61 65 72 76 79 80 81 80 78 80
50 48 43 39 37 35 32 30 29 29 28 25 23 23 24 25 28 32 34 37 38 42 46 49 50 52 55 60 64 67 73 72 70 71 73 79 79 79
44 40 39 37 33 32 30 28 27 25 23 22 22 22 23 25 29 31 35 36 41 42 45 49 52 55 58 61 61 61 61 65 68 72 76 78 75 68
35 32 31 30 29 27 25 25 24 22 21 19 18 19 22 26 27 31 35 39 38 41 44 45 46 47 50 53 53 56 63 68 71 74 73 67 58 53
26 24 23 21 21 21 22 22 20 19 18 17 17 20 23 27 30 34 37 40 43 45 41 40 43 47 49 50 55 59 61 67 72 67 59 52 48 44
21 20 18 15 16 18 18 16 16 16 16 17 18 20 22 25 29 36 38 38 37 37 39 41 43 45 50 55 58 61 63 62 54 50 46 45 41 37

GFSNE_250_spd_009.txt.gz
Wind_Speed
120 122 124 126 129 130 131 133 134 128 123 122 120 115 116 115 111 111 112 106 104 101 101 98 96 96 92 93 90 88 88 90 91 91 91 92 89 81
131 133 134 135 134 133 133 133 133 133 126 117 117 118 116 116 114 113 112 113 111 105 106 106 105 101 98 98 97 95 96 92 93 93 93 93 87 77
140 140 138 138 136 137 137 135 132 129 125 113 114 113 116 117 117 118 115 110 109 109 108 109 109 106 102 101 100 97 98 96 97 95 94 92 86 74
141 141 143 138 134 129 126 125 124 123 116 104 107 110 111 112 107 107 106 103 103 104 106 107 108 106 104 101 100 100 99 97 98 97 94 86 83 68
146 140 138 138 138 135 131 125 121 112 110 104 98 100 105 110 104 102 101 100 98 98 100 99 103 102 99 101 100 97 97 96 95 94 87 82 72 64
143 142 140 138 129 123 121 113 110 104 99 98 91 86 91 92 92 91 90 93 91 93 95 94 97 96 94 96 96 96 96 94 90 87 80 72 67 63
138 128 125 120 114 109 105 102 98 92 87 89 85 83 81 82 82 85 84 88 88 87 89 90 90 85 86 90 92 93 94 91 83 78 74 71 67 66
115 113 109 108 103 99 96 91 83 81 80 79 76 75 75 76 78 77 78 81 80 85 86 83 86 82 80 82 85 85 84 80 73 71 72 70 68 65
104 100 97 96 95 93 87 83 78 76 73 71 70 71 70 76 77 77 77 74 72 74 77 76 79 77 76 75 76 77 73 70 70 69 69 68 66 65
93 91 89 87 86 85 80 78 78 75 75 70 63 63 68 70 70 69 69 68 66 69 73 68 74 72 71 69 72 70 66 67 65 67 67 66 67 65
88 88 85 81 79 77 72 68 67 68 69 64 58 57 58 63 66 63 61 58 58 64 68 66 67 66 68 65 69 66 65 64 64 62 65 66 65 67
80 81 82 78 73 70 67 62 60 61 64 63 59 54 50 51 52 52 53 50 50 56 62 56 57 59 60 62 62 56 58 59 62 62 64 66 66 68
72 73 73 70 67 65 60 56 54 55 59 58 59 52 47 44 45 45 45 45 46 47 49 45 48 47 45 47 47 48 54 57 62 65 67 69 68 65
65 66 66 65 62 60 54 51 48 49 53 54 51 50 45 41 39 39 39 39 40 39 40 38 37 38 41 44 48 49 53 57 58 63 65 67 66 68
64 62 62 61 59 56 49 47 46 45 45 45 45 41 38 35 36 36 34 34 34 34 34 33 34 36 38 40 41 43 48 50 56 62 65 71 71 74
62 58 56 55 53 50 44 44 42 39 39 38 36 33 32 30 29 29 29 28 28 28 30 31 30 31 32 34 37 42 47 52 54 57 63 69 71 74
58 54 51 48 46 43 40 38 34 34 32 31 31 32 30 29 26 24 24 23 25 28 28 26 26 28 31 34 38 40 44 47 50 54 59 65 68 71
52 49 46 43 39 37 34 31 30 27 25 25 26 26 25 24 22 21 20 21 24 23 23 24 26 27 30 31 33 37 42 48 55 59 64 70 75 74
45 43 41 37 34 29 28 27 23 24 24 22 22 21 19 18 17 18 18 18 18 20 22 23 24 28 32 35 39 43 48 54 59 63 66 67 69 73
40 37 34 30 26 24 23 22 21 20 21 20 17 14 13 14 15 14 14 15 19 21 23 26 27 32 38 44 49 52 53 56 60 61 62 64 66 68
32 31 27 23 20 18 17 18 17 17 16 13 11 11 11 12 13 14 13 16 20 22 26 30 35 38 42 44 49 51 51 54 56 60 63 66 67 69
27 25 21 18 15 12 12 13 13 11 9 10 10 11 10 11 13 15 18 21 24 27 30 34 38 40 41 42 45 51 53 55 59 62 62 63 65 60
21 19 16 13 10 9 7 7 7 9 10 10 11 10 10 13 15 20 24 27 31 33 33 34 34 39 41 43 46 50 55 57 58 58 54 52 51 45

GFSNE_250_spd_012.txt.gz
Wind_Speed
128 132 135 136 138 140 141 142 144 143 135 130 122 120 117 120 125 129 129 126 129 131 131 125 123 116 114 112 105 101 99 97 94 92 90 89 86 88
132 133 137 141 143 145 149 150 148 140 121 115 119 122 122 123 121 122 121 122 120 118 120 124 120 115 112 110 111 108 103 100 96 95 91 90 89 87
139 142 145 147 149 149 147 145 144 144 135 121 114 112 104 105 104 104 106 106 107 108 110 110 110 107 106 104 102 105 104 97 96 92 91 88 91 86
140 146 146 144 145 146 143 141 139 132 119 105 102 100 96 94 89 92 94 96 94 96 97 97 101 101 97 96 96 96 96 92 89 89 88 87 88 84
148 145 143 143 140 134 128 125 120 114 112 103 92 93 91 92 87 87 86 87 88 91 92 94 95 96 95 93 91 87 88 87 86 86 85 88 83 82
144 142 135 130 124 121 118 115 106 101 101 98 92 87 86 89 89 84 83 84 83 84 85 86 88 90 92 89 87 86 84 84 81 81 83 86 79 79
135 128 123 120 117 111 106 102 97 93 92 90 86 80 78 80 82 82 76 77 78 79 79 80 80 81 81 85 83 80 78 78 77 79 79 78 79 76
121 119 116 112 106 101 100 97 93 89 85 83 77 74 74 75 77 76 74 72 70 73 71 71 74 75 75 77 76 77 74 73 76 77 76 77 73 68
111 106 100 99 99 97 93 89 84 83 78 74 70 68 67 70 68 69 71 70 72 73 68 67 69 69 72 72 73 70 69 70 72 72 69 69 65 63
102 99 95 91 90 88 84 81 81 79 78 75 69 59 61 63 63 63 64 63 64 69 67 62 64 62 67 68 67 65 65 63 62 63 63 61 59 60
98 94 90 87 87 83 78 72 71 74 73 73 68 63 53 56 58 56 56 53 57 61 64 57 63 58 58 61 60 60 59 59 59 56 56 56 57 57
92 89 87 85 82 79 75 70 65 64 65 65 61 55 52 50 49 47 49 49 51 54 55 50 53 53 53 53 53 54 56 56 56 55 54 55 55 56
87 81 80 80 76 72 68 64 60 59 60 58 57 50 46 45 44 42 40 44 45 49 45 43 43 42 43 45 45 47 49 51 52 51 52 51 51 53
79 73 71 72 70 64 60 56 53 52 53 54 51 45 41 40 38 36 36 38 40 40 38 38 39 37 37 37 37 39 40 42 45 46 46 46 49 52
73 70 65 64 63 58 52 49 46 45 46 45 43 40 36 33 34 30 29 30 33 34 34 34 33 32 32 31 32 33 35 35 36 38 41 44 47 48
72 69 63 59 55 52 45 43 40 37 38 38 35 32 30 30 25 23 23 25 26 28 29 28 27 26 27 28 29 30 30 33 35 40 42 44 46 47
66 64 60 54 48 44 40 36 34 32 30 28 27 26 25 21 20 21 21 21 22 23 24 24 24 23 23 24 26 29 30 31 32 35 40 44 46 47
61 56 52 46 40 37 34 31 27 25 23 22 21 18 17 16 17 17 15 16 18 20 21 21 22 23 24 23 23 24 27 30 31 34 38 41 44 46
56 48 44 39 35 30 26 23 21 19 17 17 17 16 14 12 12 10 12 13 15 17 18 20 20 18 18 19 19 23 24 26 28 32 36 39 43 47
46 43 37 33 28 24 21 18 16 14 13 13 12 10 9 7 8 8 10 12 14 15 16 16 15 15 14 17 20 23 25 28 31 35 39 42 47 52
42 37 31 27 23 20 16 12 10 10 9 8 7 7 7 8 9 12 14 15 15 14 14 13 14 15 18 21 24 28 31 34 39 43 47 51 56 60
36 30 24 21 18 14 10 8 8 7 6 6 8 9 10 12 13 13 13 12 11 13 12 14 16 18 20 23 24 28 33 37 40 44 49 53 55 57
27 23 19 14 10 8 6 5 4 5 6 7 8 10 12 12 11 8 9 10 10 12 14 17 20 23 25 28 32 36 38 40 43 46 50 54 56 58

GFSNE_250_spd_015.txt.gz
Wind_Speed
110 115 122 127 133 139 143 145 149 146 136 132 132 136 135 135 134 133 132 131 131 133 131 131 128 122 116 118 122 121 113 118 102 100 99 99 98 92
115 122 130 136 140 142 146 151 152 148 134 129 126 120 117 114 113 113 110 110 109 109 111 110 111 106 102 101 103 104 105 106 104 99 96 96 92 91
124 130 136 143 146 149 153 150 149 144 128 107 108 105 103 101 102 99 99 99 98 96 98 98 98 99 98 96 94 93 93 95 93 95 91 97 89 83
131 138 142 146 149 150 146 137 129 122 116 99 97 96 92 92 90 92 89 90 90 90 90 89 89 88 88 86 85 84 86 85 84 87 86 92 88 80
140 143 146 145 144 142 132 117 115 110 104 93 81 87 85 84 82 82 83 81 79 80 80 83 83 83 80 79 77 78 77 76 80 80 81 79 85 79
144 144 143 140 132 120 117 112 105 101 98 92 83 78 78 80 77 76 75 74 75 75 75 75 74 72 73 74 73 74 73 74 76 77 76 76 77 81
144 143 137 125 119 115 107 101 98 95 91 86 79 74 73 73 74 72 66 69 71 71 69 69 66 63 65 66 68 70 69 69 67 68 72 74 74 79
139 131 122 116 113 106 102 96 92 88 85 82 78 76 73 70 69 66 64 61 62 68 61 64 60 59 60 62 63 63 62 62 62 61 64 67 71 73
126 118 115 111 105 99 95 94 93 92 87 81 75 73 68 67 61 60 59 59 58 65 58 61 59 56 57 58 58 57 56 55 54 55 59 61 65 70
117 114 109 103 99 93 91 91 90 90 87 82 73 65 61 61 55 54 56 55 54 59 57 57 57 52 51 52 52 51 50 51 53 55 56 57 61 65
111 107 102 97 92 90 88 85 82 80 76 68 62 59 54 52 51 51 50 47 50 53 50 52 53 48 46 46 46 46 45 48 51 53 53 55 57 59
103 100 97 91 89 86 79 73 69 68 64 60 51 49 48 45 46 45 44 44 47 46 42 46 47 44 44 43 40 38 40 46 48 48 49 50 52 53
98 95 90 86 84 78 72 64 59 58 55 49 46 41 41 41 39 39 39 38 37 37 34 40 42 40 40 34 31 34 38 42 45 45 46 48 48 50
93 88 82 79 74 70 65 60 54 49 47 44 41 38 34 34 33 32 32 32 31 31 31 36 35 34 33 29 28 31 35 36 37 38 43 45 49 50
89 83 76 71 67 64 58 52 47 43 40 37 34 30 27 25 26 25 24 27 27 26 28 28 28 28 27 25 25 27 28 30 32 35 40 45 48 48
84 79 69 65 61 57 53 44 40 38 34 30 26 23 21 19 19 20 21 20 21 22 22 23 24 23 23 22 23 24 25 27 30 33 36 40 42 43
75 67 61 59 55 48 43 38 37 34 29 24 19 17 14 13 14 16 17 18 19 20 21 21 21 22 22 22 22 22 22 23 26 29 33 36 38 42
66 60 55 51 46 41 35 34 33 28 22 18 14 11 10 10 11 14 15 16 18 18 18 18 18 19 19 21 21 21 22 23 25 27 30 34 37 41
60 55 49 43 38 33 29 29 26 21 16 13 10 9 8 9 12 14 16 15 14 13 14 16 17 17 17 18 19 19 20 22 24 28 29 31 33 39
50 46 41 37 31 26 24 24 21 16 12 9 8 7 8 10 12 12 11 10 11 12 12 13 14 14 16 17 18 19 23 25 25 26 28 32 35 38
45 40 35 29 24 22 21 19 15 12 9 8 7 6 6 8 9 8 8 7 7 8 9 11 13 16 17 19 22 24 25 26 27 30 32 33 35 37
38 32 28 23 19 18 16 13 12 10 8 7 7 5 6 7 8 9 9 10 10 12 12 12 14 17 20 20 21 21 23 26 29 31 31 31 34 37
29 25 21 17 14 13 12 11 10 8 7 7 7 7 8 7 9 10 9 10 10 12 13 13 16 18 19 19 21 24 26 29 31 31 32 36 40 44

GFSNE_250_spd_018.txt.gz
Wind_Speed
109 110 110 110 114 119 125 132 138 138 131 127 137 142 141 138 135 131 126 123 122 123 120 119 117 115 117 113 110 109 109 111 114 119 116 117 115 117
109 109 112 116 120 127 134 140 143 149 146 136 136 134 127 123 114 109 107 107 106 108 108 106 105 105 106 106 103 100 97 97 100 108 109 109 99 102
109 113 118 122 128 135 138 143 149 151 152 141 123 111 107 104 101 99 96 93 92 96 94 92 91 92 94 95 92 90 89 88 91 96 95 99 97 92
113 118 124 131 136 140 145 146 149 150 140 118 104 103 101 97 90 88 88 87 87 87 87 85 83 83 82 81 82 81 80 79 80 84 86 88 88 92
120 126 132 137 143 147 147 148 146 130 119 109 98 95 91 91 84 82 82 82 81 80 79 75 75 75 76 75 72 70 71 73 72 75 76 81 85 86
127 133 139 145 147 148 145 140 124 114 109 101 95 91 90 89 83 78 76 79 77 76 74 71 71 69 66 67 66 65 65 65 66 68 70 72 77 82
132 140 146 149 146 144 132 119 112 108 101 95 93 90 87 87 83 78 72 73 75 74 68 67 66 62 59 56 59 58 57 55 57 62 64 66 68 72
140 145 148 144 139 125 116 110 106 101 97 91 88 81 79 79 74 71 67 65 66 70 61 60 57 56 54 48 49 48 48 50 51 52 56 62 63 64
143 144 142 133 118 110 107 102 100 100 93 84 73 71 69 71 65 64 59 56 58 60 49 56 51 48 47 42 44 43 42 43 45 46 49 55 59 65
143 139 129 117 108 102 95 94 95 92 86 77 69 62 61 58 56 56 52 50 48 46 46 51 43 44 41 42 40 38 37 40 44 46 48 51 57 60
136 126 116 107 101 94 89 86 86 83 77 70 62 56 56 50 49 48 46 43 39 41 41 40 39 39 39 38 35 34 36 39 43 45 46 49 51 56
121 112 105 99 95 89 84 80 77 72 68 66 56 48 48 44 41 40 39 36 34 34 33 35 35 35 35 36 33 32 33 36 39 43 46 48 49 50
107 102 96 94 89 84 79 73 66 62 61 56 51 47 43 39 36 34 32 29 28 27 30 32 33 33 32 33 31 31 33 34 37 41 45 46 45 49
99 96 91 86 83 78 71 65 60 55 52 47 44 41 37 34 30 26 24 23 24 27 29 30 31 32 32 28 27 30 31 31 36 40 42 43 45 48
93 91 87 82 76 70 64 59 54 49 44 39 36 33 29 25 23 21 21 21 22 23 24 24 26 26 22 22 26 29 29 31 34 36 38 40 42 44
88 85 81 75 68 62 59 52 48 43 37 32 29 25 23 21 20 19 18 17 18 19 19 19 20 19 19 21 25 25 24 27 29 31 33 36 38 41
79 77 72 66 60 54 50 44 40 36 32 27 23 20 18 17 17 16 15 14 14 14 14 15 16 17 18 21 22 22 23 25 27 28 30 33 37 40
74 69 64 57 52 46 41 38 34 29 26 22 19 16 15 14 13 12 12 13 13 13 13 13 13 14 14 16 17 19 21 23 26 29 32 35 38 40
65 60 54 48 43 38 35 31 26 24 21 18 15 14 13 11 11 11 12 12 11 11 11 10 10 11 12 15 17 18 19 22 25 28 30 33 36 39
58 52 46 41 36 31 26 22 20 19 17 14 12 12 11 11 11 11 11 9 7 5 5 6 8 11 13 14 16 17 19 22 24 26 28 33 36 39
50 43 38 34 28 24 20 18 17 16 13 11 11 11 10 10 10 9 7 4 2 3 5 6 7 10 12 14 16 19 21 23 24 26 29 30 32 35
41 35 31 27 22 18 16 16 15 12 10 9 9 10 10 10 10 8 7 7 7 6 7 7 7 8 10 12 16 19 20 23 24 26 28 30 32 33
31 28 25 20 16 15 14 13 11 10 8 8 9 10 10 9 9 8 8 8 7 8 8 8 9 9 10 11 12 13 17 21 24 27 29 30 32 34

GFSNE_250_spd_021.txt.gz
Wind_Speed
99 100 105 108 109 110 111 117 122 117 112 115 122 129 136 143 146 147 145 142 138 134 128 121 116 109 107 105 104 103 101 99 101 102 116 106 106 106
102 105 106 106 108 113 117 121 127 135 133 128 132 136 139 138 136 131 124 117 109 106 104 104 102 100 96 93 94 94 93 92 94 96 98 104 96 94
105 101 104 110 113 117 122 127 132 138 141 136 137 138 135 123 115 108 102 98 96 95 93 95 94 93 90 86 85 86 84 83 83 84 91 94 95 94
100 106 111 115 120 125 129 133 138 142 142 141 134 124 112 105 98 94 91 89 89 90 92 89 89 89 86 82 80 80 79 76 76 76 80 84 88 94
108 112 116 122 126 131 135 139 140 141 143 131 110 103 96 96 88 85 85 86 86 87 84 80 79 80 82 77 74 73 71 68 69 71 72 75 80 89
114 120 125 130 134 138 140 141 142 134 123 111 99 93 89 89 83 83 83 85 83 81 74 72 73 74 74 73 69 69 66 64 63 65 67 69 73 81
122 127 132 137 140 141 141 138 127 117 107 99 92 87 84 83 81 82 77 76 77 72 62 65 63 64 67 68 64 63 60 58 59 60 62 64 66 74
130 134 138 141 142 140 130 122 113 103 97 90 86 81 80 79 78 75 70 66 68 61 53 64 51 54 58 57 55 55 51 51 53 56 58 60 63 69
137 138 140 141 134 120 114 105 100 97 92 84 78 76 72 73 69 68 64 58 56 56 52 48 42 47 45 46 47 47 47 48 49 52 55 57 61 64
142 142 135 124 116 108 98 93 92 92 87 82 75 71 66 63 61 58 54 53 47 46 43 37 37 36 39 40 40 41 43 44 46 48 51 55 57 61
140 130 119 110 103 96 89 86 86 85 82 76 70 64 61 57 52 51 46 43 40 38 36 32 30 30 32 32 35 38 40 41 44 46 47 51 56 60
123 115 107 98 94 89 85 80 77 77 74 72 66 58 53 50 46 44 40 36 34 34 32 26 26 26 27 29 32 34 37 41 43 45 47 50 54 54
111 103 97 92 87 84 80 76 71 68 66 62 57 52 47 43 41 39 35 30 29 28 26 23 23 23 25 27 28 31 35 40 43 44 45 47 51 55
99 94 89 85 81 77 74 71 66 61 57 52 48 43 39 38 36 32 28 24 23 19 18 18 17 19 22 24 25 28 33 36 39 40 42 44 48 53
93 88 84 79 76 74 69 64 59 55 49 44 39 35 32 32 29 25 22 18 18 16 15 13 14 16 18 19 20 25 30 32 34 37 38 40 44 50
87 83 78 75 71 68 62 56 51 45 41 37 32 28 27 25 22 19 17 14 13 12 11 11 12 15 18 20 23 25 26 27 30 33 35 39 43 47
78 75 72 69 65 59 53 48 42 38 34 29 25 23 21 18 17 15 14 12 10 8 7 7 8 10 14 16 16 18 22 24 26 28 30 35 39 43
72 70 66 61 55 49 45 40 36 31 26 22 19 17 16 16 14 13 12 11 10 8 7 7 8 9 12 12 13 17 20 24 26 26 29 33 36 38
68 64 59 52 45 41 37 32 28 24 20 17 15 14 14 13 12 12 11 10 8 6 5 3 4 7 10 12 15 17 19 22 25 28 31 34 37 38
62 57 50 43 38 33 29 25 20 17 15 14 13 13 11 10 10 10 9 7 5 3 2 2 4 7 9 11 13 15 18 21 24 26 29 33 37 40
54 47 41 35 30 26 21 17 15 14 12 11 10 10 8 7 7 6 4 4 3 2 1 1 2 5 7 10 12 13 17 18 20 22 25 29 33 36
44 38 33 27 22 19 17 15 13 12 11 11 11 10 9 8 7 5 4 3 2 0 1 2 4 5 5 6 9 12 15 18 19 21 23 25 27 32
35 29 25 21 17 16 15 14 14 14 14 14 14 15 15 13 11 10 10 8 5 4 5 6 8 9 10 9 8 10 11 14 19 22 25 26 28 32

GFSNE_250_spd_024.txt.gz
Wind_Speed
88 90 95 97 100 107 111 112 111 102 96 103 110 116 122 128 132 136 137 139 142 143 142 140 136 131 127 125 123 122 121 120 119 119 119 120 121 122
92 94 99 104 108 110 110 110 114 117 112 113 118 124 128 132 137 140 139 138 136 130 122 120 116 112 109 107 106 104 104 100 99 99 99 100 102 104
98 101 105 108 107 109 112 114 119 126 130 123 127 131 134 136 134 130 123 116 111 108 106 104 102 101 100 98 99 97 96 92 89 89 90 91 92 94
104 105 105 107 111 113 117 122 128 132 137 136 132 131 127 119 111 105 101 99 96 96 96 96 96 91 87 86 88 90 88 85 80 79 79 82 83 88
106 105 109 113 115 120 126 130 133 135 138 134 124 116 107 103 96 94 91 93 94 90 87 86 84 80 81 82 84 86 86 82 78 74 74 74 79 82
108 112 115 119 124 129 132 134 135 132 127 118 109 103 99 94 90 85 86 91 89 82 79 78 76 77 76 74 74 78 79 75 72 69 68 71 74 76
113 118 122 126 131 134 136 133 126 116 111 106 101 97 92 88 85 83 78 81 83 73 68 74 66 66 65 65 65 68 69 68 66 65 65 69 70 70
119 124 128 131 136 135 128 118 114 111 105 97 92 88 85 81 77 77 75 71 70 64 60 68 54 62 59 55 55 59 61 61 59 61 64 64 65 65
127 131 135 137 129 118 110 109 107 106 101 92 84 81 74 73 70 70 65 61 60 58 59 57 49 50 50 49 49 49 50 52 54 57 60 59 62 63
135 137 133 121 115 110 105 100 97 95 91 85 78 70 69 67 62 59 55 54 53 50 49 44 44 43 42 41 42 42 43 46 50 54 57 59 62 62
138 128 119 114 108 102 95 88 85 84 81 75 68 64 61 57 53 51 47 46 44 42 39 36 36 34 35 34 34 35 37 40 44 48 53 56 58 60
122 117 112 107 100 93 86 81 77 75 72 70 63 57 53 49 45 42 39 38 37 35 32 29 27 27 28 28 28 30 33 37 42 46 50 52 55 57
110 104 101 95 90 86 80 75 70 67 65 60 56 50 43 38 36 35 34 31 29 26 24 22 22 22 21 22 23 26 29 32 37 41 44 47 50 52
102 96 90 87 82 77 72 69 65 60 56 53 47 41 36 33 32 31 28 24 22 20 18 16 17 17 17 16 17 21 24 28 32 36 39 43 46 49
95 90 85 79 74 71 66 61 57 53 48 43 38 34 31 30 28 26 23 20 16 14 13 12 12 13 14 15 16 17 20 25 28 32 36 39 42 44
91 84 78 73 68 64 60 55 51 45 39 34 31 28 27 26 23 21 19 15 12 10 10 10 9 8 8 9 13 17 19 22 28 33 37 39 41 43
80 76 71 66 60 55 52 47 42 37 32 28 26 24 23 21 19 17 15 13 11 9 8 7 6 5 6 7 9 12 19 24 26 29 32 35 36 37
74 69 64 60 54 49 44 39 34 31 28 25 23 22 20 19 17 14 12 11 9 8 6 6 5 5 5 8 11 14 16 20 25 28 30 32 33 34
68 63 58 54 49 44 38 33 31 28 25 23 21 19 18 16 14 12 11 9 6 5 4 4 4 5 6 9 10 13 16 20 24 26 28 30 32 33
60 56 51 47 43 37 32 30 28 26 24 22 20 18 16 13 12 10 9 7 4 3 1 2 4 5 6 8 10 13 15 17 19 23 27 28 30 32
53 49 44 40 36 31 29 28 26 25 23 21 19 16 15 13 12 11 8 6 5 2 1 4 6 7 7 7 9 12 13 14 17 19 24 29 32 35
47 42 37 33 30 28 26 25 24 23 22 21 19 17 16 14 12 11 10 9 7 5 3 3 6 9 11 11 12 11 15 15 16 20 22 24 29 34
39 34 31 28 26 25 24 24 23 22 20 19 19 18 16 13 11 10 10 9 8 7 6 6 8 9 12 14 15 14 14 17 19 18 21 27 28 28

GFSNE_250_spd_027.txt.gz
Wind_Speed
90 92 96 98 100 101 101 101 101 95 94 102 105 109 112 117 122 127 128 129 131 135 139 141 143 144 143 143 141 139 138 137 136 135 133 133 135 138
95 97 98 100 100 103 106 107 108 107 99 101 107 113 117 122 128 133 136 138 141 143 143 142 140 136 133 130 126 123 120 119 118 118 117 116 116 119
98 98 99 103 106 107 108 108 110 115 117 111 120 124 127 130 134 137 139 137 133 132 127 121 119 117 113 110 109 107 106 105 103 101 101 99 99 99
97 101 106 106 107 108 110 114 118 123 129 129 125 129 131 129 125 120 116 114 111 109 107 107 105 101 97 96 94 93 95 95 94 93 92 90 88 89
104 103 104 106 110 114 119 122 126 129 133 134 127 120 113 110 105 103 101 101 99 97 94 91 88 86 86 88 87 87 87 87 86 84 83 82 82 81
103 104 109 114 118 122 125 128 131 131 127 121 112 103 101 98 96 91 91 92 89 87 84 84 81 81 81 80 79 79 80 80 80 77 77 76 77 78
107 112 118 122 125 129 132 131 124 116 111 105 100 97 95 91 88 87 83 82 83 79 78 79 77 76 74 72 72 73 73 73 72 70 69 70 73 72
114 119 124 127 132 133 126 116 113 107 102 96 94 88 84 83 81 78 76 75 76 74 74 73 66 66 65 63 62 64 64 64 64 62 62 62 64 69
122 125 130 135 130 117 112 108 106 105 101 92 84 83 77 75 74 73 69 68 66 64 65 61 55 57 56 55 53 54 55 55 54 51 52 54 59 65
128 133 133 124 114 109 102 100 98 96 92 87 79 75 72 69 67 64 61 59 57 55 56 55 52 50 49 48 48 47 46 46 45 43 46 50 55 63
133 130 119 110 106 102 96 92 89 86 82 77 73 69 66 61 57 55 52 52 53 49 48 46 46 44 41 39 40 38 36 35 35 36 40 45 51 54
123 116 110 105 101 95 90 84 80 76 73 70 65 59 55 51 48 47 47 45 44 41 39 38 38 35 30 29 30 28 26 26 27 30 33 37 38 43
112 105 102 97 91 86 81 76 71 69 65 60 55 51 47 45 42 38 37 35 33 32 31 31 29 24 21 21 21 20 18 18 20 23 25 28 33 40
105 101 93 88 84 78 73 69 65 60 57 52 47 44 43 39 36 33 31 29 27 26 25 23 21 17 15 14 16 14 12 12 14 17 19 24 31 38
101 93 87 81 76 70 66 62 58 52 47 44 41 38 36 33 31 30 27 24 22 19 18 18 14 12 11 10 12 12 11 12 14 15 18 21 27 31
90 86 80 74 70 64 59 54 49 44 41 38 33 31 30 29 28 26 24 21 17 16 15 13 10 8 7 8 9 11 13 13 14 17 19 23 25 28
81 77 73 67 61 57 51 45 41 38 33 30 29 28 28 27 25 24 21 18 15 13 11 10 7 5 6 7 9 11 14 16 16 18 19 22 25 28
75 71 65 60 55 48 43 38 34 31 28 28 27 26 25 24 24 21 18 16 14 13 10 8 6 4 4 7 11 15 15 16 17 18 19 21 24 28
69 63 58 53 46 41 37 32 30 28 27 26 24 23 22 21 19 19 18 14 12 10 9 7 5 4 4 6 10 13 16 18 21 22 22 24 25 27
61 56 51 45 39 35 31 30 28 27 26 23 22 22 21 20 18 17 17 13 10 9 7 5 4 3 5 8 9 12 15 18 19 23 26 27 29 30
55 49 43 37 32 30 29 28 28 28 26 24 22 21 19 19 18 17 16 13 11 10 7 5 3 4 6 8 10 13 14 16 18 21 23 26 29 31
47 41 36 32 30 29 28 29 28 27 27 26 25 23 22 19 17 17 15 14 12 10 7 4 4 5 7 9 11 13 15 16 18 19 20 23 25 28
39 35 31 30 29 29 28 26 23 22 22 22 22 23 23 22 19 17 16 14 12 10 7 5 3 5 8 10 12 13 14 18 17 19 21 23 24 24

GFSNE_250_spd_030.txt.gz
Wind_Speed
93 92 93 95 98 100 99 96 94 89 89 94 97 101 103 106 110 115 118 120 124 126 128 129 131 133 135 135 134 134 133 134 133 134 135 136 133 132
95 96 98 100 101 101 102 103 102 100 93 96 100 106 111 116 121 125 128 131 133 135 137 137 137 136 135 134 134 133 133 131 131 131 133 136 139 138
99 101 102 101 102 102 102 102 105 110 111 106 113 118 122 125 127 130 132 132 129 129 127 123 119 116 115 115 116 116 115 112 113 113 111 113 114 116
101 102 102 101 102 104 106 109 114 119 123 124 122 126 128 129 126 122 117 116 112 112 110 110 105 104 105 103 103 103 103 102 101 100 99 99 99 101
101 102 101 102 106 111 116 120 124 127 130 132 127 122 116 114 109 106 105 105 103 100 97 92 89 89 89 88 87 90 90 90 92 92 91 91 91 90
101 102 107 112 117 121 124 127 129 129 126 121 114 106 103 99 98 95 94 94 90 88 86 84 83 81 78 77 77 78 78 79 80 81 80 80 82 82
106 111 117 122 126 128 130 129 125 117 112 105 100 96 93 90 88 88 85 83 82 79 79 79 75 73 72 72 71 71 71 72 72 73 74 74 75 76
114 119 124 128 130 131 126 120 115 107 99 95 91 87 87 83 81 78 76 75 73 68 71 73 66 66 64 64 63 64 64 64 63 64 64 64 65 67
122 125 129 130 126 118 110 107 104 100 94 86 85 84 81 77 74 71 66 65 64 62 62 64 53 59 56 54 53 53 53 53 54 54 54 55 57 61
128 131 129 119 114 107 102 99 96 90 87 83 79 77 73 71 67 62 59 57 55 54 56 55 47 48 45 43 43 42 43 44 45 45 45 46 49 53
132 129 119 110 105 100 96 89 86 83 80 74 71 68 65 62 59 56 52 50 46 45 45 45 40 37 35 36 35 37 37 38 38 38 39 39 41 44
126 119 112 107 100 94 87 82 79 76 72 67 62 58 56 53 50 47 46 43 42 39 38 35 33 32 27 32 29 30 30 31 31 31 33 34 35 39
117 109 103 98 92 86 82 77 72 68 64 61 57 51 46 43 40 39 38 36 32 31 31 27 28 26 23 25 24 24 23 22 21 23 26 27 29 31
109 102 96 89 85 81 77 69 64 60 57 53 48 44 40 37 35 32 30 28 28 28 25 23 23 21 20 20 20 17 15 15 15 16 16 18 21 25
101 95 88 83 80 74 67 62 58 54 49 44 40 38 35 31 28 28 26 25 24 21 21 21 20 18 16 17 15 12 11 9 9 9 9 13 17 21
94 88 83 79 74 67 61 56 52 46 41 39 36 32 30 28 26 24 23 22 21 20 19 19 17 15 13 13 12 9 7 6 7 8 11 11 16 20
84 82 78 71 64 60 55 50 44 39 36 34 31 29 26 25 25 23 22 22 20 18 17 16 14 12 10 10 9 7 6 6 8 9 12 16 18 22
80 76 70 64 58 52 47 43 38 34 32 30 28 26 26 24 24 22 20 20 18 16 15 14 12 10 9 7 6 6 5 7 10 12 14 18 21 23
75 69 62 56 52 46 41 37 34 31 29 27 27 27 27 26 23 22 19 18 17 15 13 11 9 8 7 5 4 4 6 7 10 13 15 18 22 25
68 62 56 50 45 39 35 33 31 29 27 26 25 25 26 26 25 21 19 18 14 13 12 9 8 6 4 4 4 5 6 8 11 15 18 18 22 27
60 55 49 44 39 35 33 31 29 27 26 26 27 26 24 24 24 24 20 17 13 10 10 9 7 5 4 4 5 7 9 10 12 13 17 21 23 25
53 48 43 38 34 32 31 30 27 27 27 28 29 28 27 26 24 23 22 16 15 8 6 7 4 4 3 5 6 9 13 14 14 16 18 18 20 24
45 41 37 34 33 31 30 28 27 30 31 32 33 31 28 25 25 22 21 19 13 11 5 6 4 0 2 6 9 8 12 16 16 17 20 23 23 24

GFSNE_250_spd_033.txt.gz
Wind_Speed
105 109 111 102 98 99 101 100 95 87 87 92 94 98 102 105 108 112 115 116 118 120 123 124 124 124 125 124 124 124 123 124 125 127 127 128 126 125
112 111 102 101 103 101 100 101 102 101 94 97 101 107 111 115 118 120 121 123 124 125 126 126 128 130 130 128 129 130 129 128 129 130 131 132 134 135
110 103 105 103 100 101 99 102 107 113 114 110 115 120 122 124 125 124 122 119 118 119 119 117 116 115 114 113 114 117 118 116 117 116 115 115 116 120
106 105 101 100 97 100 106 111 117 122 126 125 123 125 124 122 116 111 109 105 102 103 104 104 103 101 101 101 102 102 103 105 104 104 104 104 103 106
103 99 97 98 104 110 116 121 125 127 132 131 119 116 111 107 102 100 98 97 94 93 93 90 90 90 91 92 93 93 92 93 93 94 93 93 93 94
100 96 102 108 114 119 123 127 130 130 126 116 110 104 102 98 95 90 89 87 84 83 81 82 82 81 82 82 81 82 82 82 82 83 85 84 83 84
98 104 111 117 122 127 130 131 130 122 111 103 102 98 94 89 86 84 79 79 78 72 75 76 72 72 70 69 73 74 73 73 74 73 74 73 74 75
105 112 119 124 127 131 132 127 120 108 99 94 94 90 89 82 81 75 72 69 70 64 67 67 63 66 61 63 62 62 65 65 64 65 66 66 68 69
114 120 124 129 131 129 121 116 110 103 96 89 88 84 82 76 73 70 64 61 59 60 60 56 56 55 53 53 53 55 55 53 55 57 59 60 61 62
122 127 129 131 127 117 109 105 101 96 89 85 81 77 73 70 66 62 60 55 49 49 52 48 48 43 43 45 45 43 44 45 46 46 48 49 51 53
126 130 130 123 114 107 100 96 92 88 83 76 72 69 66 62 60 58 54 49 43 41 41 39 38 36 34 37 36 36 37 38 37 38 40 41 43 46
130 129 121 113 107 99 94 88 85 81 77 71 65 62 58 54 49 47 47 44 40 37 34 33 31 33 25 34 30 31 30 30 30 31 32 34 36 39
126 117 110 105 98 93 87 82 78 74 68 64 60 55 49 46 43 40 39 39 36 30 31 30 27 26 26 25 25 24 23 24 24 25 27 29 30 32
115 107 101 98 92 86 81 76 71 65 61 57 53 47 43 40 38 36 35 34 32 30 29 25 22 22 23 21 21 19 18 19 19 19 21 23 25 27
107 100 95 89 83 79 73 69 63 58 54 49 45 41 38 36 34 31 31 30 30 28 24 23 21 20 20 20 18 15 15 14 14 14 16 18 20 22
98 94 87 82 77 74 68 61 56 51 46 42 39 37 35 33 31 28 29 27 24 23 21 20 19 18 19 17 15 12 11 9 8 9 11 14 15 18
90 84 80 76 70 66 60 55 49 45 42 40 37 36 35 32 30 27 26 27 25 21 19 18 16 15 15 15 14 9 7 6 5 4 8 12 13 16
82 78 74 69 65 59 54 48 45 42 40 39 38 37 36 33 29 26 23 23 22 19 16 16 13 12 12 12 10 6 3 3 0 4 7 12 15 17
76 73 68 63 57 53 48 45 43 41 40 38 37 35 33 32 31 26 20 20 20 18 14 13 11 11 11 9 7 4 3 3 5 7 9 15 20 21
73 68 62 57 52 48 45 43 41 40 39 38 37 36 36 35 30 28 22 16 17 16 13 12 9 9 10 7 5 3 4 4 6 11 12 16 22 27
66 61 56 51 47 44 42 39 41 42 41 38 37 37 35 33 33 28 22 16 14 13 11 9 8 7 7 4 4 3 7 7 8 12 16 16 22 27
59 55 51 46 43 40 38 38 39 40 40 40 41 40 37 32 26 24 21 17 11 10 8 7 5 3 2 3 4 4 8 10 11 14 17 20 20 24
53 50 45 43 39 36 32 36 40 41 40 37 34 31 27 24 18 19 20 15 9 8 5 5 3 1 3 1 6 6 10 13 13 15 19 21 23 26

GFSNE_250_spd_036.txt.gz
Wind_Speed
95 100 103 107 113 116 120 118 108 102 91 94 95 99 104 107 111 115 119 121 123 124 128 131 131 129 127 125 123 123 123 123 123 121 120 119 116 116
100 104 108 113 118 122 117 114 111 104 93 96 102 108 112 115 120 122 123 122 120 120 118 118 117 119 119 119 119 118 119 121 124 125 128 128 127 126
105 109 114 118 123 114 115 109 106 109 109 105 114 119 123 125 127 121 114 108 106 107 107 105 104 105 107 108 109 108 107 106 108 111 116 121 125 128
110 115 120 120 114 112 105 106 110 116 121 121 121 125 131 129 120 111 106 101 97 97 95 95 96 97 96 96 96 97 99 100 99 98 99 103 106 110
115 120 115 112 105 103 107 113 119 123 128 130 129 130 122 116 106 100 94 92 89 85 86 86 83 85 85 85 85 86 87 89 90 90 90 92 93 95
120 111 110 104 103 109 115 121 126 129 131 131 126 118 110 103 96 90 88 85 80 79 80 76 74 74 73 75 75 75 76 78 81 83 85 86 86 87
110 105 100 103 110 117 122 126 131 132 127 120 112 106 98 92 89 85 81 78 74 72 75 65 69 66 65 65 67 68 69 69 70 70 72 74 76 77
100 97 103 111 117 123 129 133 136 127 115 106 100 94 91 85 83 77 74 68 70 65 67 60 58 59 59 56 57 59 59 58 58 60 63 66 70 72
98 104 110 118 124 129 132 132 125 114 106 97 92 87 85 79 76 71 67 61 56 58 62 55 53 51 49 51 50 49 49 49 49 51 54 58 61 63
105 113 118 124 130 132 126 118 111 103 97 91 86 81 75 70 67 64 61 57 50 48 52 50 47 45 40 43 44 43 42 43 43 45 48 51 54 57
113 120 126 129 129 121 111 105 99 95 88 83 78 72 67 62 59 58 55 52 49 41 44 43 43 41 37 36 36 36 36 37 38 39 42 44 46 50
118 125 130 129 118 110 102 96 92 87 83 77 70 64 59 55 51 49 49 50 44 43 38 38 38 39 32 35 33 30 30 30 32 34 36 37 39 43
124 128 127 115 108 102 96 91 84 80 75 69 63 59 53 50 47 45 43 44 43 40 36 35 33 31 31 27 27 26 27 26 26 27 28 31 32 36
128 125 113 106 100 96 90 83 79 73 67 62 57 52 50 48 43 41 41 39 38 35 35 32 32 28 25 24 23 23 22 21 21 22 23 25 26 27
126 115 104 98 93 86 81 77 71 66 60 55 51 50 47 45 43 38 36 37 34 33 29 29 28 24 21 19 19 19 17 17 17 18 18 18 19 20
112 102 95 90 82 78 76 70 64 59 54 51 48 46 45 43 41 37 32 33 31 27 26 25 25 20 17 16 16 16 15 14 13 14 13 13 12 13
98 93 87 79 75 71 66 61 57 52 50 47 47 44 42 39 35 33 30 27 31 26 23 22 22 16 13 14 13 13 12 8 11 12 10 11 11 11
91 85 78 74 71 65 58 52 49 48 46 45 43 42 39 35 33 31 29 25 26 25 21 18 18 14 10 11 9 9 7 8 10 10 7 9 8 5
82 76 72 69 63 57 51 48 47 46 45 43 42 41 38 36 35 33 29 24 22 23 17 15 13 10 7 8 6 6 4 9 7 4 7 5 1 7
74 72 68 62 56 50 46 45 44 45 42 42 43 42 39 37 32 29 26 18 16 20 14 11 8 6 4 5 4 4 7 8 4 8 10 6 10 14
70 66 61 55 48 44 43 41 43 45 46 45 42 37 33 27 23 20 19 14 11 15 11 8 5 2 3 4 5 6 10 10 8 13 16 12 14 18
65 59 53 47 44 41 39 40 42 43 43 42 38 33 26 21 18 16 16 13 11 13 9 5 2 1 4 6 6 9 13 12 13 16 21 19 19 23
57 52 46 42 40 36 37 39 41 41 39 37 32 27 24 22 17 14 15 12 10 11 8 5 4 4 7 8 9 12 17 15 17 18 21 24 26 26

GFSNE_250_spd_039.txt.gz
Wind_Speed
85 89 92 95 98 100 102 105 106 105 109 119 112 114 109 106 108 110 113 116 121 125 128 128 128 128 125 123 123 124 124 124 125 126 125 123 123 121
90 95 97 100 103 104 107 111 116 119 110 109 105 103 107 110 115 118 123 127 128 125 120 115 110 108 110 111 110 110 109 110 110 112 113 115 118 121
96 100 101 102 105 109 114 119 122 115 110 94 104 109 115 119 124 128 124 119 115 110 105 101 101 100 98 99 100 100 100 99 99 100 100 102 103 106
101 101 103 106 111 116 121 118 113 106 105 106 110 118 123 129 131 128 118 110 101 99 95 94 95 91 92 93 93 94 93 93 92 93 93 94 94 95
102 104 108 113 118 121 114 109 100 108 115 119 119 126 130 131 123 114 106 100 94 90 89 88 84 82 84 84 85 83 83 84 84 82 82 84 86 87
105 109 114 118 117 112 100 103 109 116 122 125 128 132 127 118 109 99 95 90 85 84 84 82 74 75 72 73 76 75 76 75 73 72 72 75 76 77
111 116 118 113 107 98 103 110 118 124 126 129 129 119 112 103 97 92 85 84 78 75 79 73 68 68 64 63 64 70 69 66 65 64 65 66 67 68
116 114 111 98 99 106 112 121 128 130 130 124 115 106 100 94 90 85 81 76 75 63 72 65 62 60 56 59 60 59 60 59 57 57 56 58 60 63
109 108 96 100 107 112 120 127 133 135 125 113 104 97 93 86 84 81 75 69 63 59 64 59 56 51 51 50 49 52 53 50 49 50 50 53 55 56
99 96 100 107 115 121 124 130 133 122 111 103 95 89 83 79 75 72 69 66 59 47 53 52 52 45 48 45 43 42 43 43 43 44 44 46 48 51
96 103 109 115 122 125 129 129 117 108 101 95 86 81 77 71 66 64 60 54 56 46 47 45 45 41 38 40 41 39 38 37 39 40 41 41 43 44
102 109 116 123 125 129 124 111 105 100 94 86 80 75 69 64 58 52 52 51 50 50 41 43 40 41 35 33 33 33 34 34 34 36 37 37 38 40
108 117 122 125 128 121 109 104 98 90 84 79 74 69 63 56 49 44 44 44 48 46 39 42 42 35 36 34 28 30 31 31 32 32 32 34 35 37
117 123 125 127 118 107 102 96 88 81 77 72 67 62 57 52 47 42 40 37 40 45 38 37 37 34 33 28 31 25 29 29 26 27 28 28 28 31
125 128 127 115 106 100 92 85 80 75 69 65 61 55 51 47 45 41 34 32 31 38 33 33 32 30 31 28 27 24 21 24 23 23 23 23 23 24
126 125 112 102 97 89 82 78 74 68 64 61 57 51 47 41 39 38 32 26 24 28 32 28 28 26 23 25 21 19 18 17 18 20 19 17 17 18
118 107 99 94 85 77 73 68 65 61 58 55 51 47 40 40 40 40 36 29 28 24 25 26 24 22 20 19 17 15 14 15 16 14 12 13 12 10
103 96 90 82 76 73 68 62 56 53 51 48 45 44 44 45 42 37 35 32 27 27 24 22 20 17 16 15 13 12 12 13 11 12 13 8 7 3
94 87 78 73 71 65 61 56 53 49 46 45 48 49 47 43 38 34 29 27 27 23 22 19 16 13 13 11 8 7 9 7 8 10 8 8 6 2
84 75 70 67 62 59 53 50 47 45 45 49 50 49 42 35 29 28 26 24 21 20 19 15 12 9 10 6 5 4 4 6 5 6 6 9 7 4
72 67 64 60 56 52 47 42 44 47 50 50 45 39 32 25 26 24 23 24 19 16 15 10 8 6 6 2 0 2 4 4 7 8 9 12 9 8
66 61 57 54 50 46 41 42 45 48 47 43 39 34 26 22 22 22 22 21 17 14 11 7 6 4 4 4 4 7 5 6 10 11 12 11 16 14
59 54 50 47 44 40 42 44 46 44 41 38 33 30 24 21 18 16 17 15 12 10 8 6 6 6 7 7 7 10 8 11 14 14 15 13 19 22

GFSNE_250_spd_042.txt.gz
Wind_Speed
75 77 80 82 85 89 93 97 99 99 103 107 109 113 118 120 116 114 113 107 110 113 116 122 125 129 132 132 129 126 123 121 120 119 119 119 120 120
79 82 84 88 91 95 99 102 106 105 101 111 115 119 116 115 113 107 108 113 118 123 128 126 126 124 119 117 113 109 107 105 105 105 105 107 108 110
82 86 89 93 97 101 104 107 110 111 112 115 116 113 111 108 110 113 118 123 128 130 125 117 114 109 103 99 97 97 97 95 94 93 93 94 96 97
86 90 94 98 102 105 108 110 114 118 119 110 109 104 109 113 116 122 128 131 126 118 108 103 103 96 94 90 89 90 90 89 88 88 87 84 87 87
90 94 99 102 105 108 112 115 119 116 115 107 101 108 114 121 125 131 130 121 109 101 96 95 92 84 85 86 85 84 83 82 80 79 78 77 78 80
95 99 101 104 108 112 117 118 114 109 105 108 110 113 120 127 130 123 114 107 98 92 88 89 82 78 77 75 76 77 76 74 72 71 71 70 71 74
98 100 104 109 114 118 114 113 104 107 111 114 117 122 128 127 119 108 100 95 90 78 85 87 68 73 69 68 68 67 67 66 66 64 63 63 64 67
101 106 110 116 116 113 109 104 110 114 116 119 124 130 126 114 105 99 91 86 84 72 73 80 61 66 60 63 61 60 60 58 57 59 59 56 55 58
108 112 117 112 112 102 103 109 115 121 124 126 130 123 111 102 96 91 85 81 77 70 68 69 55 58 53 57 56 55 55 53 50 52 54 52 50 50
114 115 112 108 99 103 108 115 121 126 130 129 119 107 99 92 86 83 79 76 70 61 55 59 50 53 48 50 50 50 48 51 45 44 46 47 46 46
110 111 101 100 105 111 115 120 125 130 128 115 104 97 90 86 81 77 70 66 65 60 53 53 46 51 43 45 47 46 44 47 43 40 40 40 40 41
107 98 100 105 113 117 121 125 129 125 111 103 95 87 82 78 72 66 61 60 57 62 52 52 42 44 45 39 41 42 41 38 37 39 35 35 36 38
95 99 105 113 118 121 126 127 118 108 102 95 87 82 76 70 64 57 51 50 49 54 53 51 43 39 42 43 32 34 35 38 33 33 35 35 34 35
99 106 113 118 122 126 125 113 106 99 92 86 81 74 69 62 56 52 44 42 37 46 53 43 42 41 38 39 37 35 27 33 34 32 31 32 34 33
109 115 120 123 126 121 109 103 96 89 83 79 74 68 61 57 52 47 36 37 35 40 47 45 40 38 38 36 37 31 30 25 29 31 30 28 28 29
115 120 123 123 114 105 100 92 85 81 76 72 68 62 58 52 46 46 44 40 39 35 45 46 39 37 34 31 33 29 28 29 26 27 26 25 26 27
118 120 116 106 100 96 88 81 77 71 67 62 59 56 51 51 50 51 47 43 41 37 36 41 37 36 33 26 24 26 26 25 24 23 22 20 21 20
117 109 100 96 91 84 79 74 67 63 58 55 51 50 52 53 51 46 43 41 38 36 33 30 31 30 26 24 20 21 19 21 21 19 18 16 17 14
102 97 93 86 80 76 71 66 61 55 52 49 49 51 52 49 45 42 39 36 35 30 27 25 24 23 19 18 17 18 17 17 16 15 15 13 13 4
93 88 81 76 73 67 62 57 53 51 49 49 52 52 48 43 38 35 35 33 31 26 24 20 17 15 13 13 14 12 12 13 11 14 11 7 3 4
83 77 73 69 64 59 56 52 49 48 51 53 51 46 41 36 34 31 30 28 23 19 18 14 12 10 8 8 9 9 9 8 10 9 7 11 4 7
72 68 65 61 57 54 50 48 49 53 53 49 43 38 35 32 26 25 25 20 14 12 13 10 7 6 4 5 5 5 6 7 8 8 10 12 8 12
64 61 57 53 51 49 47 48 52 50 48 45 40 34 31 26 22 20 20 13 9 9 7 4 5 4 3 2 0 2 5 6 10 9 13 15 15 16

GFSNE_250_spd_045.txt.gz
Wind_Speed
72 73 74 77 79 82 84 86 86 86 90 98 102 105 108 110 113 116 120 122 122 120 118 107 105 108 113 120 124 126 127 127 127 127 127 124 121 116
75 76 78 80 83 85 87 89 92 94 94 101 105 108 111 114 119 123 121 118 118 107 107 110 114 119 123 126 126 124 118 112 109 107 105 104 103 102
77 80 83 85 87 89 91 94 96 99 99 104 109 113 118 121 122 120 118 107 108 111 118 121 123 124 118 112 106 103 101 97 94 92 90 90 90 91
80 82 85 87 90 92 95 98 101 103 105 106 114 120 122 121 121 111 109 112 116 121 125 124 119 110 103 98 95 93 91 87 84 81 80 81 81 82
82 85 88 90 94 96 99 102 105 108 112 116 118 119 121 118 109 111 114 121 125 122 117 109 104 97 93 88 85 84 83 80 77 77 75 74 74 74
85 88 91 95 97 100 103 107 110 115 120 122 117 116 110 111 112 115 121 127 123 109 102 101 93 86 82 80 79 78 76 74 72 69 66 66 66 68
88 91 95 98 101 105 109 113 118 123 122 120 114 108 111 113 118 124 123 117 110 94 92 92 80 78 74 73 72 72 68 67 65 62 59 57 56 57
91 95 99 103 106 110 114 119 124 121 119 110 111 112 115 121 125 125 114 105 98 85 78 87 73 70 67 64 64 64 61 60 61 60 56 55 55 55
95 100 103 107 111 115 120 120 119 113 113 112 113 119 123 127 121 111 103 94 85 78 73 80 65 62 58 55 56 58 57 57 57 54 52 51 50 52
100 104 108 112 118 120 116 112 111 116 117 118 121 124 123 112 103 99 91 86 80 70 62 68 61 55 54 47 50 53 52 52 53 49 50 47 44 47
105 109 113 118 117 116 109 110 115 117 120 124 124 119 107 100 90 85 82 76 75 68 54 56 54 49 53 43 45 49 48 47 47 45 46 43 43 42
109 115 118 115 113 107 111 114 116 121 125 125 114 103 94 85 80 75 71 68 63 65 53 54 51 40 53 39 39 43 44 40 42 42 43 41 40 40
114 113 112 106 107 112 115 118 123 126 123 108 101 89 82 78 73 67 61 53 53 52 50 51 56 50 48 51 36 40 39 35 36 38 39 39 39 37
109 105 103 107 112 116 120 125 127 115 103 95 86 81 77 71 64 59 52 45 42 48 55 52 57 55 54 52 48 40 34 31 33 33 35 35 32 32
99 103 108 114 118 122 126 121 107 99 90 84 81 76 69 63 57 53 47 46 46 48 51 53 53 52 50 47 44 41 38 29 28 29 29 30 31 31
104 110 116 119 123 124 113 101 94 87 81 79 74 68 63 57 52 50 51 52 51 45 43 47 41 39 38 38 38 33 31 31 26 27 28 27 27 27
109 116 119 121 116 104 95 89 83 78 74 69 65 60 55 52 52 54 52 49 47 44 37 38 32 30 31 29 29 29 25 24 27 28 25 25 26 26
115 117 114 104 96 91 87 80 75 71 65 61 57 54 53 54 54 50 46 43 43 39 34 29 28 27 24 19 19 20 20 21 21 21 25 24 24 24
111 102 94 91 87 83 77 74 70 64 58 54 54 55 55 51 47 44 41 37 38 34 30 26 23 20 14 16 15 15 16 18 18 22 19 18 18 16
92 88 85 82 77 72 69 66 62 57 55 55 55 53 48 46 42 36 36 34 31 27 24 19 15 12 12 11 11 11 12 14 16 15 13 10 11 8
85 82 77 71 67 64 62 58 55 55 57 57 54 50 45 40 33 33 32 27 23 20 15 10 9 8 7 7 8 9 11 12 12 11 9 4 3 3
77 71 66 63 60 58 55 52 54 56 54 50 47 44 39 34 29 28 26 21 16 13 7 6 5 4 4 5 6 8 9 11 9 9 10 9 5 0
65 60 58 57 53 51 49 52 53 50 48 45 41 38 33 28 25 22 19 12 9 6 3 3 5 4 5 5 8 10 12 10 10 12 12 11 8 8

GFSNE_250_spd_048.txt.gz
Wind_Speed
72 73 74 75 76 78 79 80 81 79 82 90 92 94 97 98 101 103 107 109 113 118 120 123 124 117 114 101 104 106 109 111 113 115 118 118 117 115
74 75 76 78 80 82 83 85 87 87 84 91 94 97 100 103 106 109 112 116 120 124 125 120 115 102 103 104 108 113 117 118 118 117 115 112 110 108
77 78 80 81 83 84 86 88 91 92 92 94 98 101 103 107 111 115 119 122 125 124 118 107 107 107 110 113 116 117 116 114 109 103 99 96 94 94
80 81 83 83 85 87 89 91 94 97 98 98 103 106 109 112 117 119 123 124 121 109 111 112 113 117 117 115 112 105 100 98 95 90 85 83 82 83
79 81 83 84 87 89 91 94 96 99 102 104 105 109 113 120 121 123 121 113 110 112 114 119 117 114 109 101 97 93 90 88 84 80 79 77 76 76
79 81 84 86 88 91 93 96 100 103 105 107 110 114 120 124 122 117 109 115 118 118 116 114 110 102 97 92 87 83 83 81 77 75 71 70 68 68
79 81 84 86 88 92 96 100 103 107 110 114 117 121 124 123 115 110 115 117 122 116 108 109 97 94 84 81 78 77 76 72 70 68 65 62 61 60
78 82 83 86 91 95 99 104 108 113 116 119 122 121 119 107 110 116 120 120 120 105 94 100 85 83 76 74 69 69 68 65 62 61 60 57 54 54
77 80 85 91 95 99 104 109 114 121 125 125 121 109 107 113 116 118 119 112 105 96 85 87 80 76 68 66 59 62 61 59 57 57 56 53 52 51
78 85 89 95 100 104 109 115 121 126 127 121 111 111 114 117 117 113 105 102 98 85 74 73 74 69 63 57 51 54 53 51 50 51 52 50 50 50
85 91 96 100 105 111 115 120 122 121 116 114 115 116 117 116 106 98 95 88 86 83 67 64 65 59 60 54 43 45 46 43 44 44 44 44 45 45
92 98 103 108 113 117 118 116 112 113 114 118 120 117 109 101 96 86 79 76 73 73 61 59 58 47 55 51 42 46 48 45 45 42 39 41 44 42
98 105 110 113 114 112 111 113 113 114 119 120 115 106 100 92 83 78 71 65 62 60 56 55 55 50 50 60 46 47 47 42 43 39 36 40 40 39
105 109 109 106 107 111 114 115 117 120 114 106 100 94 86 80 76 70 63 59 52 52 53 52 56 52 51 51 49 40 40 38 37 33 35 35 35 37
102 100 102 107 112 116 115 119 117 107 101 95 87 80 75 71 67 63 57 53 52 52 54 54 51 45 41 42 35 36 32 28 30 31 30 29 31 31
99 104 109 115 117 119 117 108 100 94 87 81 75 72 67 65 60 58 59 57 55 51 45 47 41 32 29 32 28 26 26 21 23 25 25 23 25 26
104 110 115 117 116 107 100 93 87 82 76 72 68 63 61 58 59 58 56 55 50 46 38 34 34 24 25 24 24 20 19 19 20 19 17 17 21 23
110 114 114 108 99 95 88 84 76 73 69 65 60 58 59 57 54 50 48 46 43 37 33 27 24 23 20 20 18 15 12 13 14 16 19 19 17 19
111 106 96 91 87 84 78 73 71 67 63 59 58 58 55 50 46 44 41 36 33 30 24 21 19 16 15 12 9 9 10 11 13 15 15 18 19 19
96 90 86 82 78 72 69 66 63 60 58 59 57 54 52 48 42 37 34 30 26 22 19 15 12 10 9 6 5 6 7 9 12 14 16 17 17 16
84 82 79 73 67 64 60 57 55 56 57 55 51 49 46 41 35 31 27 22 20 16 12 9 6 5 4 6 7 8 9 10 12 11 13 13 12 11
77 73 67 62 60 56 53 52 55 54 52 49 46 43 38 33 27 22 19 18 14 9 7 4 4 6 7 7 6 6 8 8 8 9 8 8 9 11
68 61 57 55 51 49 48 51 51 49 46 44 40 35 29 26 22 19 15 12 9 8 7 8 10 11 9 7 8 9 8 7 7 8 9 10 9 8

GFSNE_250_spd_054.txt.gz
Wind_Speed
70 70 68 68 67 68 69 71 73 75 79 85 87 89 90 90 92 92 93 94 97 98 100 101 102 102 104 105 106 106 106 107 109 111 114 116 117 118
70 71 68 69 70 71 70 71 72 74 76 80 85 89 92 93 93 94 95 96 99 101 103 104 104 105 106 105 105 105 107 109 112 116 119 121 123 124
72 73 71 69 70 72 74 75 76 76 76 79 83 86 88 90 92 94 96 99 102 103 105 106 106 106 105 106 108 110 113 117 120 124 126 126 125 119
72 72 68 72 74 74 75 76 78 80 81 80 81 81 84 88 91 93 96 99 102 104 105 106 108 110 112 113 115 120 123 121 120 120 118 114 112 111
71 72 71 72 75 76 77 78 79 82 82 78 75 77 81 86 88 92 96 99 102 105 108 110 113 116 119 120 117 115 115 115 115 117 117 114 111 108
68 71 74 77 79 79 79 80 81 80 78 76 76 79 84 88 92 94 99 105 110 114 116 116 117 113 113 114 115 115 114 112 110 108 104 98 95 92
72 73 77 80 80 80 80 79 78 78 80 82 84 88 92 96 100 104 106 110 114 114 109 109 112 114 116 115 111 107 101 95 95 96 94 88 82 78
71 76 80 80 81 79 77 78 82 86 89 92 95 97 101 104 107 107 103 102 107 113 112 111 111 113 108 103 98 91 83 80 80 82 83 77 72 70
75 78 79 78 75 77 81 86 91 96 99 100 101 103 103 102 102 104 107 108 111 111 105 102 102 101 97 93 85 76 69 67 71 75 76 71 63 61
76 74 72 76 81 85 89 93 99 103 106 108 105 103 104 105 105 108 109 107 106 103 95 91 92 92 89 85 74 67 61 59 62 67 68 65 57 51
69 73 77 82 87 91 96 101 104 107 106 106 107 108 110 111 110 107 105 99 96 95 88 80 80 78 81 77 67 58 52 53 56 59 61 57 51 46
74 79 83 88 93 97 100 100 101 105 109 113 115 115 115 111 105 98 93 89 84 81 79 74 75 69 70 70 55 47 49 53 55 56 55 51 50 52
81 87 91 95 98 99 99 104 108 112 116 118 118 113 106 101 97 90 83 77 73 71 67 64 70 68 62 64 59 44 51 57 56 53 52 53 54 54
87 92 95 97 97 102 107 111 115 117 116 113 106 101 96 92 86 79 73 69 66 62 63 63 64 60 56 54 51 44 47 50 50 49 49 48 47 48
91 91 93 98 104 109 112 113 113 109 103 99 95 90 85 79 74 69 67 65 67 60 53 58 58 53 48 47 46 43 44 43 43 42 42 39 39 40
89 96 101 106 110 112 110 105 101 95 91 88 82 77 73 70 66 64 64 62 60 57 46 51 47 44 41 39 37 36 37 37 35 34 33 33 34 36
98 104 108 108 104 101 96 91 85 83 77 71 67 65 63 62 64 59 56 52 48 47 42 41 39 36 34 32 30 28 28 29 29 29 27 27 28 27
105 104 98 96 93 87 82 78 72 67 62 61 59 57 58 60 57 50 45 41 39 37 35 32 30 27 25 23 22 21 21 22 22 21 17 18 23 23
95 91 86 82 77 73 68 63 58 56 55 53 53 54 55 51 47 45 41 37 34 31 27 23 19 17 17 16 16 14 14 16 15 16 18 19 21 25
82 79 74 69 64 59 55 53 50 49 48 49 50 49 47 45 41 35 32 29 26 22 19 17 15 14 13 12 12 12 11 12 14 16 17 19 20 22
72 67 62 57 54 51 47 45 43 44 46 47 45 43 41 37 32 30 28 26 23 21 18 15 13 12 12 11 11 12 12 13 14 14 14 15 16 16
61 56 53 51 48 43 40 38 40 41 41 40 38 37 33 30 27 25 23 21 19 17 16 15 14 14 13 12 12 12 11 12 13 13 14 14 14 13
53 50 47 44 40 36 35 37 38 38 37 35 33 29 26 24 21 20 19 19 18 18 17 17 17 17 16 14 13 14 13 12 12 14 16 15 14 13

GFSNE_250_spd_057.txt.gz
Wind_Speed
75 74 77 79 79 79 80 77 75 73 74 77 78 79 80 81 83 83 85 86 88 89 91 91 92 92 92 93 94 94 95 95 96 98 99 101 102 103
70 72 74 77 79 82 82 80 78 76 74 73 79 82 83 85 88 88 89 89 91 91 91 90 91 91 92 92 94 95 96 97 98 100 102 102 103 104
70 72 77 78 82 82 81 80 78 78 77 79 81 84 86 89 89 89 89 88 87 87 87 87 88 90 91 93 95 97 99 100 102 103 104 106 108 109
70 73 76 79 77 78 77 76 77 81 82 82 83 87 88 89 86 84 84 85 86 88 90 91 93 96 97 100 102 104 106 107 109 112 115 116 118 120
69 69 72 75 74 75 75 79 84 85 85 85 87 87 85 84 83 84 86 91 95 98 99 99 102 104 107 111 111 113 114 115 114 115 117 117 117 115
67 71 72 72 72 75 79 83 86 89 92 94 88 84 86 89 92 94 97 102 104 107 107 103 103 104 108 108 110 111 112 112 112 114 116 117 118 116
69 70 70 71 74 79 83 88 91 93 94 89 88 92 96 99 102 104 103 103 102 104 104 105 104 108 110 111 112 112 110 108 107 106 105 104 104 101
63 67 69 72 78 83 85 89 92 91 88 92 97 100 102 104 104 102 100 102 103 110 111 111 110 111 111 109 108 103 94 90 88 88 90 91 92 89
69 72 75 77 80 85 88 91 87 93 96 99 101 102 101 102 103 106 109 109 112 113 108 105 101 101 99 99 97 89 80 76 74 74 76 80 82 79
70 74 78 82 86 87 82 86 93 99 101 104 105 105 106 109 110 110 112 110 106 102 99 92 91 92 90 91 89 77 67 66 69 69 68 72 74 71
73 77 82 84 80 84 88 93 97 101 104 106 108 111 113 115 113 109 104 98 95 95 95 80 82 79 80 83 81 70 57 56 64 63 62 65 64 61
76 79 76 78 84 89 92 96 99 102 107 112 116 117 116 113 106 98 93 89 85 81 84 73 76 73 70 76 72 64 56 55 63 61 58 59 57 53
69 75 80 84 89 93 95 98 103 108 113 117 119 117 111 102 97 91 84 77 73 71 70 65 72 73 67 65 67 61 54 54 56 55 51 51 52 53
76 81 85 90 94 96 100 106 111 115 117 116 109 103 98 92 86 80 75 69 63 61 67 66 63 61 57 54 52 49 50 47 45 44 45 44 43 45
80 83 87 91 96 102 105 110 112 112 104 99 94 90 84 77 73 70 66 65 65 61 58 54 52 48 45 43 38 40 37 37 35 33 33 33 34 35
79 85 91 95 100 105 107 106 98 94 89 85 81 75 71 69 64 63 64 63 57 52 48 42 41 38 36 35 32 32 30 28 28 27 26 26 27 28
86 92 96 99 100 99 93 89 85 78 74 69 66 64 61 59 59 59 55 52 49 45 42 38 36 34 31 29 28 26 24 23 22 21 22 24 26 26
91 94 93 93 87 84 80 74 67 63 62 60 57 54 54 55 53 48 45 43 38 35 33 31 30 28 25 23 21 20 20 18 17 16 17 19 19 20
87 84 81 77 73 69 63 58 56 55 53 50 49 51 50 46 44 40 36 33 31 30 28 27 25 23 21 20 19 17 18 18 17 16 16 17 18 20
77 73 70 66 59 55 52 50 49 48 46 46 46 45 42 39 36 33 30 28 28 27 26 25 25 24 23 21 21 20 19 18 18 18 18 18 18 21
69 66 60 54 51 48 46 45 43 43 45 44 41 39 36 33 30 28 28 27 26 25 24 23 22 22 21 20 19 19 19 19 18 17 17 16 15 16
64 58 52 48 45 43 41 40 41 42 41 38 36 33 31 29 26 25 23 23 24 24 24 23 22 21 20 20 20 19 17 17 17 15 15 14 14 13
60 53 48 45 41 39 38 38 39 38 36 34 31 29 27 23 22 23 22 24 23 22 22 23 23 23 22 21 20 19 19 19 18 16 16 16 16 16

GFSNE_250_spd_060.txt.gz
Wind_Speed
86 82 82 83 85 85 85 79 75 74 74 82 84 86 82 79 79 79 78 81 84 85 86 87 87 86 84 83 82 82 83 83 85 87 89 94 95 96
83 83 82 82 83 82 78 75 75 75 74 81 85 84 82 82 82 84 86 88 91 92 90 85 82 79 79 80 81 81 82 84 85 85 85 86 89 93
82 82 80 79 78 76 75 73 75 78 78 80 81 82 81 83 87 88 88 89 90 88 83 82 83 84 86 87 89 91 93 94 95 96 96 96 97 98
77 77 78 75 73 73 77 76 78 79 79 80 81 82 84 88 89 91 94 93 90 89 91 92 92 95 96 99 99 101 102 104 105 105 107 108 109 109
72 73 72 73 74 74 76 80 79 80 81 82 84 87 89 93 95 96 95 94 95 99 101 101 102 104 105 104 103 103 105 106 106 107 108 110 112 114
68 69 71 71 72 75 80 81 79 80 82 86 88 91 95 97 98 99 95 99 102 108 110 109 107 107 109 109 109 109 110 111 110 110 111 111 113 114
67 71 74 74 76 78 78 81 82 82 87 91 94 96 98 100 98 99 102 105 108 110 108 111 113 114 114 113 112 111 109 107 103 101 101 101 103 105
63 68 71 74 74 75 79 81 84 90 93 95 96 99 104 101 103 107 107 106 106 115 118 121 118 117 113 109 105 102 98 94 90 88 87 88 91 93
58 59 64 68 73 77 78 81 86 92 95 99 102 105 105 109 107 105 108 112 116 119 116 117 110 104 101 98 94 91 86 81 75 70 70 77 81 82
55 56 59 63 67 74 79 85 89 95 99 103 103 104 106 104 106 110 114 117 118 116 106 95 99 94 88 86 85 80 73 65 56 59 67 73 73 70
54 55 61 68 73 78 84 89 91 93 99 103 104 104 106 111 114 115 117 114 108 104 96 83 85 78 77 76 75 72 64 60 60 63 65 64 60 57
55 61 67 74 78 80 82 87 92 96 98 101 106 110 114 116 115 114 108 101 94 90 81 77 75 70 72 72 71 68 62 58 57 54 56 55 52 51
64 68 71 73 77 81 85 87 91 97 103 108 113 116 116 114 110 102 93 84 78 76 69 68 67 65 64 67 62 58 55 51 47 44 44 43 42 43
63 66 70 73 79 83 88 94 101 106 111 114 115 112 106 98 93 84 76 72 65 67 66 62 59 54 51 50 49 47 45 44 39 35 34 33 34 35
63 68 75 81 86 90 95 103 108 110 109 105 99 95 88 79 74 72 65 62 60 58 59 51 47 45 44 39 36 35 33 32 30 29 28 28 28 28
67 74 81 86 90 96 102 104 103 97 92 89 82 74 69 65 60 58 59 59 56 48 43 46 41 38 35 33 31 30 28 27 26 25 24 23 22 22
76 82 87 91 97 101 99 93 86 82 77 70 66 62 56 53 53 54 50 47 41 40 37 34 36 33 29 28 27 25 23 21 20 20 19 17 17 17
81 88 91 97 96 89 82 78 72 66 62 58 53 51 50 51 48 44 39 38 36 35 33 33 31 29 30 28 25 24 22 21 19 19 18 17 14 13
87 92 91 85 80 75 71 63 56 55 51 47 47 48 47 44 39 35 32 32 32 32 31 31 30 29 28 28 27 25 23 21 19 18 17 17 16 16
90 86 78 73 68 64 58 51 48 46 44 45 46 44 40 35 32 30 31 30 29 28 28 27 26 24 24 24 23 21 20 19 18 18 17 16 14 16
84 73 68 64 60 54 48 45 43 42 43 44 42 38 34 29 27 28 28 27 28 28 26 24 25 25 24 23 23 22 21 21 20 17 14 14 14 16
73 65 62 58 51 46 43 41 39 40 41 41 37 32 28 25 24 24 24 25 25 24 23 24 25 25 25 24 22 22 19 17 17 17 19 20 19 12
62 60 56 51 44 41 39 38 37 40 40 35 32 27 23 21 22 21 23 23 22 23 23 23 22 21 21 22 22 20 20 19 21 21 23 23 21 20

GFSNE_250_spd_063.txt.gz
Wind_Speed
98 95 95 98 94 91 88 88 88 88 88 88 88 86 82 78 78 77 77 77 78 78 78 77 78 79 80 80 82 85 87 86 83 80 77 77 77 78
99 97 97 94 94 91 90 90 88 88 86 85 86 86 83 82 82 83 83 83 84 84 83 83 83 83 85 86 86 83 81 80 80 82 83 84 85 86
98 96 96 95 91 91 89 87 85 86 83 85 85 85 85 86 85 85 88 87 89 91 90 90 89 90 91 89 89 86 87 91 93 95 94 94 95 95
98 96 92 92 92 90 86 84 84 80 82 81 82 87 90 91 89 88 90 93 94 94 96 95 98 97 93 94 94 96 101 102 101 100 98 98 99 101
90 89 91 90 88 85 73 79 70 80 82 82 84 86 87 91 91 92 92 96 96 100 101 101 100 100 101 102 107 107 105 103 104 106 107 108 109 110
84 84 83 78 73 67 71 73 77 84 85 86 89 91 93 95 94 95 97 98 100 104 104 104 106 109 110 109 107 108 109 108 107 106 107 107 108 107
79 76 63 56 64 68 72 74 80 85 87 89 89 89 91 93 95 95 95 97 101 106 107 113 113 111 113 112 110 108 105 100 98 95 95 95 96 97
61 61 58 70 75 78 79 80 80 80 78 78 81 82 85 89 92 96 99 101 107 114 109 111 116 119 114 111 106 100 93 89 85 84 83 84 85 86
62 65 64 65 71 75 78 77 76 76 76 78 81 87 91 94 98 104 106 105 105 111 109 116 120 111 110 102 96 89 81 76 72 70 71 74 77 77
56 55 59 66 69 69 69 68 71 76 81 84 86 90 94 97 95 96 101 107 113 117 110 113 106 102 96 87 83 80 73 67 65 63 64 66 68 70
37 41 46 51 56 60 66 73 80 84 86 88 89 89 93 97 100 104 109 112 112 108 99 98 90 85 81 75 73 75 71 67 62 59 59 60 61 63
41 46 51 57 62 69 75 79 81 82 84 89 93 96 100 103 108 111 110 104 96 95 87 83 77 72 73 72 68 69 64 59 56 54 50 49 50 53
49 53 57 61 66 72 76 79 81 86 92 96 98 103 106 107 107 99 92 88 81 75 71 70 70 66 62 65 59 59 56 48 47 46 43 41 42 43
50 55 59 65 70 75 80 84 88 93 97 100 104 105 103 93 89 85 76 71 66 63 63 63 62 56 53 53 48 47 44 45 38 35 35 33 32 33
54 58 64 70 76 82 86 89 94 97 100 104 99 91 85 80 74 69 63 60 55 54 55 53 51 47 42 42 40 38 33 34 33 30 28 26 25 26
58 63 68 74 81 86 90 93 97 100 97 89 82 76 70 62 58 56 54 53 51 45 42 42 41 42 37 35 35 32 33 28 27 26 24 22 22 23
63 66 71 80 87 91 94 98 94 87 81 77 70 62 56 51 49 51 49 47 45 41 34 32 33 36 35 32 30 30 27 27 26 25 24 21 19 19
66 71 77 85 91 93 92 86 78 73 68 62 56 51 46 46 47 45 43 39 34 33 33 33 31 28 30 31 28 26 26 25 23 23 20 19 20 18
72 78 85 91 92 83 77 71 66 61 55 51 45 42 42 44 43 40 35 29 28 30 32 31 30 29 25 23 26 27 23 21 22 23 22 19 18 19
80 84 86 85 76 70 65 62 59 51 47 42 39 41 42 39 36 32 27 25 25 26 26 27 26 27 28 28 25 22 24 23 21 17 15 17 18 18
84 83 78 76 66 61 57 54 49 44 39 36 37 39 38 34 29 24 23 25 25 25 26 24 24 25 25 24 22 21 21 20 20 19 19 16 10 9
81 73 73 67 59 55 53 47 42 38 34 35 37 37 33 29 23 21 21 21 22 24 22 21 21 21 21 20 20 20 17 16 20 22 23 24 23 18
71 71 70 60 54 51 47 41 37 33 31 34 36 33 29 24 20 19 19 19 20 21 20 18 17 18 19 19 20 19 18 17 18 17 18 22 22 21

GFSNE_250_spd_066.txt.gz
Wind_Speed
99 97 96 97 96 94 95 84 88 97 98 97 97 98 98 98 96 91 91 89 89 87 86 82 79 79 80 81 82 79 80 80 78 78 79 81 81 81
101 97 98 100 102 101 98 93 101 101 100 103 103 98 96 100 96 92 89 86 87 87 84 82 82 81 81 83 84 87 88 86 85 86 83 85 83 83
109 105 102 97 105 98 97 102 105 104 103 101 104 99 96 90 96 92 91 87 86 86 87 87 87 86 88 90 91 92 89 88 90 89 90 89 90 89
108 106 105 105 105 104 105 106 105 103 98 100 104 97 91 90 91 89 89 89 91 93 93 95 94 93 92 91 88 88 89 91 93 93 95 96 96 97
107 107 106 104 104 104 101 96 92 90 90 94 93 89 85 85 88 89 92 95 97 96 93 89 89 89 90 91 92 94 94 94 95 98 101 106 106 106
98 95 93 92 89 90 90 91 93 93 93 92 91 87 87 87 90 91 92 90 86 86 85 88 91 92 94 95 96 94 98 102 106 111 113 111 109 108
88 82 81 80 80 83 83 85 86 83 80 82 85 90 95 96 91 87 81 83 88 90 90 97 96 97 99 99 102 104 106 108 107 106 101 99 97 96
77 71 64 66 69 74 76 76 77 75 80 87 91 93 97 87 79 82 85 87 92 94 91 98 98 106 106 108 106 102 97 95 95 92 88 83 81 84
59 57 56 63 64 64 69 73 71 71 72 76 76 76 77 79 82 86 88 90 94 95 95 104 110 110 110 104 95 90 86 84 84 78 73 69 70 72
39 45 51 56 58 59 56 55 58 61 66 70 73 78 80 82 85 88 91 94 99 102 100 106 108 103 95 89 82 76 76 76 73 71 69 66 64 63
16 22 28 35 41 48 54 59 63 67 72 76 80 83 86 89 91 94 96 99 103 107 104 104 97 90 84 74 67 65 69 69 67 64 63 60 58 57
27 32 37 43 48 54 60 65 71 76 80 84 86 89 92 93 94 97 101 104 101 98 89 90 81 71 72 67 58 60 61 60 57 54 55 52 51 54
37 41 46 51 55 60 66 72 78 83 87 89 91 93 94 96 100 101 98 89 82 80 73 70 68 65 63 64 60 54 52 54 52 52 51 50 47 46
42 46 50 55 60 65 70 76 82 87 89 91 95 99 101 101 94 81 76 73 67 63 62 59 61 59 58 57 52 51 47 48 49 46 46 44 43 41
45 49 53 57 63 69 75 81 87 91 94 97 99 98 88 77 74 71 65 59 54 53 56 56 53 50 48 48 48 45 47 41 45 43 41 40 38 37
48 51 55 61 67 74 79 86 91 92 94 91 84 77 68 66 63 58 54 51 48 48 47 45 44 44 43 42 44 44 41 41 35 36 36 37 33 34
53 58 63 68 75 79 85 89 87 84 80 76 68 63 60 54 50 49 47 47 46 43 37 34 37 38 38 39 38 36 39 35 35 32 27 28 32 27
62 67 71 76 81 85 82 78 75 76 71 65 61 56 49 46 43 42 43 43 39 37 37 34 32 31 32 32 36 38 28 31 34 32 31 29 28 30
70 74 79 83 81 73 72 70 70 65 61 58 53 48 43 40 41 41 39 36 34 32 33 33 32 32 30 25 25 32 31 27 27 27 26 25 23 28
76 80 84 78 70 69 68 65 62 58 54 50 46 42 38 38 39 37 35 32 30 28 29 29 29 28 29 30 28 25 27 29 28 26 25 25 25 24
79 83 77 70 70 68 63 59 56 52 50 44 41 37 35 37 36 33 30 29 27 25 25 25 25 26 27 25 25 24 25 24 24 24 22 22 18 20
81 76 70 69 68 67 59 54 52 51 45 41 36 33 34 35 33 29 27 25 24 23 22 23 22 21 22 22 23 20 19 19 21 25 27 28 28 30
77 68 68 68 66 62 55 51 50 46 41 38 31 31 35 33 31 27 24 22 22 20 20 20 19 20 21 18 16 17 20 22 24 24 23 25 26 26

GFSNE_250_spd_069.txt.gz
Wind_Speed
104 104 102 100 99 98 96 95 92 89 95 102 92 94 101 100 100 103 105 111 110 112 99 96 94 89 85 82 77 73 72 71 73 72 71 72 72 74
111 109 107 106 104 103 94 101 94 91 100 102 100 102 100 104 104 109 112 113 110 99 99 96 92 84 83 80 78 77 77 79 81 82 81 80 81 81
126 123 119 116 112 106 102 98 97 96 95 104 103 103 109 113 115 111 108 102 104 101 97 92 88 84 80 83 84 84 85 80 77 77 79 80 82 84
118 118 118 116 113 109 106 99 105 101 100 104 108 113 113 107 103 102 101 102 96 98 96 94 92 87 87 94 88 87 82 77 76 78 82 86 88 90
103 106 109 108 109 110 107 105 105 102 102 103 103 104 105 105 103 100 98 94 95 97 93 88 84 89 92 83 80 80 82 82 84 88 89 90 90 92
95 93 97 99 98 100 97 95 92 91 91 93 96 96 96 96 96 95 94 90 91 88 84 88 90 84 83 83 84 81 82 83 86 89 94 98 101 102
63 70 81 93 99 100 98 94 89 86 85 85 84 89 91 90 87 85 84 87 91 84 84 86 83 87 87 86 85 85 88 91 94 97 101 104 106 99
41 46 56 64 73 78 81 80 79 81 83 82 85 86 79 81 78 78 78 80 82 84 84 89 86 90 90 90 90 92 94 96 97 97 96 94 91 87
20 23 31 38 46 53 59 64 70 73 75 77 73 70 73 75 77 80 82 84 86 86 84 91 93 95 95 95 95 93 90 88 88 85 83 79 76 73
14 13 14 18 25 32 37 41 45 51 57 62 68 72 75 79 83 85 86 86 89 91 90 96 100 102 101 91 87 81 78 77 74 71 69 67 65 64
22 20 21 22 26 30 36 42 47 54 61 68 73 78 82 85 88 91 93 94 97 99 97 99 94 90 86 77 72 68 64 65 64 61 61 60 59 58
29 30 31 35 38 42 47 51 57 63 69 75 81 85 89 91 94 96 97 100 98 96 88 87 77 70 72 64 58 54 57 58 58 55 53 54 54 53
35 36 38 41 44 48 53 57 62 68 73 80 86 89 91 95 98 99 98 91 83 78 72 70 69 62 54 58 55 49 50 48 49 49 48 48 48 47
38 39 42 44 47 51 56 61 67 73 78 84 89 93 96 96 89 81 76 71 67 65 62 58 56 52 52 54 54 47 43 41 44 42 43 44 45 43
45 47 50 53 56 60 64 67 72 78 84 89 87 84 80 77 73 67 62 60 58 52 51 51 49 49 49 47 47 41 42 34 35 38 38 39 42 42
53 55 58 61 63 66 70 76 80 84 80 77 78 78 74 66 61 58 57 52 48 43 43 47 45 44 41 39 41 41 36 36 36 35 35 33 34 35
57 61 64 67 70 73 77 80 81 73 74 74 76 72 64 57 53 50 48 46 42 42 41 40 38 37 35 35 38 38 35 33 33 35 34 33 33 32
61 65 69 73 75 80 83 79 70 70 70 72 71 65 57 53 48 43 41 39 40 39 38 34 31 30 30 27 31 36 30 31 31 32 32 32 32 33
65 70 74 79 83 83 77 67 68 69 69 70 66 58 54 48 43 39 36 37 37 35 32 30 29 29 30 25 22 25 28 27 26 27 27 26 27 28
71 76 81 84 83 71 63 66 67 67 67 65 58 53 49 42 39 35 34 36 33 29 26 26 27 27 26 26 25 22 24 23 23 23 23 21 23 24
76 81 86 79 67 61 66 67 66 66 65 61 55 50 43 39 36 34 35 32 29 24 22 23 24 25 24 22 22 23 22 19 20 21 24 24 23 23
82 87 77 65 61 66 69 68 67 65 63 58 53 45 39 35 33 32 31 30 24 20 20 21 21 21 20 20 20 18 15 16 19 19 22 26 30 32
83 79 67 63 67 71 70 68 67 64 59 55 49 40 36 33 30 31 30 26 20 18 19 20 20 18 17 16 16 17 17 17 17 16 17 19 24 26

GFSNE_250_spd_072.txt.gz
Wind_Speed
112 113 113 111 110 111 108 106 102 99 95 90 87 86 85 70 82 89 94 91 101 102 106 106 107 105 112 110 100 95 91 80 67 61 58 60 59 63
111 111 110 111 113 115 115 114 112 108 104 98 90 84 80 79 86 91 99 103 105 109 107 101 109 118 112 105 99 93 85 81 77 72 70 70 73 77
108 107 106 106 106 105 105 105 103 102 103 100 100 95 101 100 99 104 107 107 106 108 113 118 117 112 106 98 95 87 83 84 78 77 75 78 82 83
101 99 97 99 101 101 99 100 102 101 102 102 100 104 104 107 110 109 108 107 114 113 109 108 105 103 99 92 85 81 81 81 80 82 83 82 80 77
76 74 75 76 78 90 97 95 93 93 95 100 100 98 98 99 99 99 100 103 103 101 101 102 93 89 86 86 85 82 80 76 76 74 75 78 80 81
50 55 56 56 59 65 72 83 91 99 98 95 95 95 94 93 95 97 100 103 101 99 99 96 92 90 85 81 79 77 77 79 80 81 83 84 87 88
51 46 41 38 41 45 51 59 67 77 84 87 90 93 95 98 99 98 96 97 98 96 97 94 85 85 83 81 82 82 81 82 84 85 88 90 94 95
42 37 30 27 25 24 24 30 36 44 52 58 65 70 74 78 81 83 86 89 90 85 84 90 86 91 88 87 85 83 83 84 86 88 92 95 96 96
37 36 33 31 28 25 23 22 22 25 30 36 42 47 54 60 67 72 78 83 85 86 86 93 86 87 86 85 85 85 86 87 88 89 87 84 82 80
40 37 35 33 30 28 27 27 29 33 37 41 47 53 58 65 71 76 80 83 83 85 86 93 90 96 94 88 85 81 79 78 77 75 74 73 72 68
43 43 42 41 40 40 41 41 42 45 48 52 56 61 66 71 77 82 87 90 96 96 94 95 89 89 83 74 71 68 67 65 66 63 62 60 56 58
47 47 46 45 45 45 46 48 50 53 56 60 64 69 73 77 83 89 92 95 94 88 81 83 75 71 74 61 59 59 57 53 51 52 52 52 51 51
47 47 47 49 51 53 55 57 60 62 65 67 70 73 79 83 86 86 84 81 78 76 73 72 67 61 58 58 51 43 45 43 46 46 44 43 44 47
48 50 53 54 56 58 61 63 66 69 71 73 76 80 80 78 75 79 78 76 71 66 61 59 60 54 47 46 44 40 41 38 39 36 37 39 41 41
49 52 54 57 60 63 66 68 70 74 79 80 78 74 68 70 75 76 73 67 59 54 52 51 49 45 41 43 44 37 37 28 29 34 34 34 34 34
53 55 58 62 64 67 70 73 77 81 76 69 63 64 69 72 74 71 64 57 54 48 40 42 43 41 39 36 34 35 31 27 26 27 28 28 28 28
56 59 63 67 70 72 76 77 79 70 61 60 65 68 69 72 68 61 55 53 48 42 36 36 40 38 34 29 28 30 30 26 26 25 26 25 27 28
59 62 68 72 74 76 79 80 71 62 63 67 70 69 71 69 62 54 51 46 42 36 33 36 35 32 27 21 28 28 26 26 25 25 25 24 22 26
63 68 72 74 76 78 80 76 68 66 68 73 71 70 68 64 57 52 45 40 36 32 33 34 31 27 23 17 18 24 24 21 22 23 24 24 23 23
68 71 72 75 78 79 80 71 68 69 73 73 71 69 63 58 54 47 39 35 31 32 31 29 27 23 23 21 16 17 21 21 20 22 23 24 26 23
67 71 74 78 80 80 73 70 71 73 73 72 70 64 58 54 49 40 35 29 29 33 29 25 23 21 20 19 17 18 17 18 20 21 23 22 22 22
71 73 76 79 80 75 71 71 73 71 71 71 65 59 53 48 41 34 30 26 28 30 26 22 21 19 18 17 16 16 16 18 20 20 21 22 24 25
71 74 78 80 78 72 73 73 69 69 70 64 59 52 46 40 34 29 25 24 28 26 24 20 19 17 15 14 14 14 16 17 17 16 14 16 21 25

GFSNE_250_spd_075.txt.gz
Wind_Speed
107 105 102 101 99 98 101 102 103 102 103 100 95 96 93 94 93 87 94 93 89 90 86 94 93 92 88 94 97 98 104 101 104 105 107 96 85 75
100 96 93 94 94 92 92 95 98 101 100 98 96 97 94 91 93 94 94 91 91 89 91 96 101 102 104 102 103 106 112 114 106 104 94 87 78 74
86 79 79 78 76 82 76 73 78 83 91 97 94 95 95 96 95 96 95 95 95 97 101 105 105 104 105 110 115 116 109 101 100 97 89 83 77 74
73 73 79 82 74 61 60 55 54 59 67 76 90 94 92 92 96 99 100 100 98 98 103 104 105 108 111 109 107 103 99 100 93 92 89 87 81 77
70 74 77 75 76 66 50 45 45 47 51 59 70 81 89 96 95 92 92 92 93 94 95 101 105 107 103 102 101 100 95 91 90 86 83 76 74 73
67 68 69 66 62 60 59 48 42 38 37 43 52 60 67 76 84 91 94 95 95 96 99 103 103 102 99 96 94 88 86 84 79 79 80 79 80 80
61 63 61 57 54 51 47 43 38 31 25 25 30 35 40 48 56 63 69 74 77 81 83 83 87 86 82 80 78 78 80 81 81 81 82 84 85 86
58 58 55 51 50 49 45 41 38 36 34 33 32 31 33 36 39 44 50 55 58 64 70 71 77 79 80 80 82 84 84 84 85 87 89 91 91 92
55 55 52 51 50 48 47 45 44 43 42 42 43 43 44 45 47 52 55 59 63 65 73 75 77 80 83 83 83 85 83 81 81 82 85 88 88 89
52 51 49 49 49 51 53 54 53 53 52 52 52 54 56 59 62 65 68 71 72 74 79 87 88 91 89 84 80 77 76 76 77 76 73 72 72 71
51 51 50 50 50 51 52 51 51 52 53 54 56 58 61 64 67 70 74 77 78 80 82 86 87 86 83 75 72 71 69 68 65 62 60 61 61 60
51 51 51 51 52 53 54 55 57 59 61 63 65 67 69 72 74 75 75 76 77 76 74 74 72 74 79 71 59 55 58 57 54 52 52 49 48 49
51 50 52 53 55 56 58 60 62 64 67 69 69 72 75 70 64 60 61 64 68 71 70 71 74 68 63 62 52 46 48 45 44 45 44 42 44 47
52 53 55 56 57 59 62 64 67 69 71 72 73 76 71 62 58 62 66 70 71 70 68 65 64 61 57 53 47 38 37 37 40 40 39 38 40 43
52 54 55 58 60 61 65 68 70 71 73 75 76 72 63 61 64 67 71 72 70 68 62 58 57 57 50 43 42 36 38 33 35 35 37 34 35 37
53 55 57 60 61 64 68 69 70 74 76 77 73 64 62 63 67 70 71 69 68 63 54 52 52 50 45 36 37 37 37 35 27 32 34 32 33 32
54 58 60 61 64 67 69 73 75 76 78 72 65 63 65 68 70 69 68 65 61 58 52 45 43 44 39 35 36 36 35 30 28 28 27 26 26 26
58 59 61 63 67 71 75 77 76 78 75 69 68 68 69 69 69 68 64 59 55 52 47 39 37 37 33 32 34 33 31 26 23 24 23 20 21 22
58 59 63 67 72 75 76 75 76 77 72 71 71 70 70 70 69 64 59 53 49 47 39 34 32 34 32 26 29 32 25 24 21 20 21 20 17 19
59 63 68 72 73 75 74 75 77 74 72 72 71 70 70 70 64 59 53 47 44 39 32 28 30 33 30 25 21 28 25 23 18 17 17 15 18 18
64 66 69 72 75 74 74 75 75 71 71 72 70 70 69 64 57 50 45 40 36 32 29 24 28 31 28 23 20 23 23 20 15 13 14 17 17 15
65 67 70 73 72 71 74 74 70 69 71 69 69 69 64 56 49 44 40 35 30 27 26 26 27 27 24 20 19 20 17 15 12 12 14 16 16 17
66 68 69 69 69 72 73 70 69 71 69 68 70 64 57 50 45 40 36 29 25 22 25 26 25 22 20 20 19 17 14 12 11 9 9 14 19 23

GFSNE_250_spd_078.txt.gz
Wind_Speed
112 102 98 99 105 94 89 86 84 82 79 82 87 79 81 85 88 89 93 100 95 90 87 83 81 84 89 85 88 92 95 98 99 100 95 93 96 96
96 96 101 106 93 86 82 82 82 83 80 77 74 65 66 75 85 94 98 95 96 91 90 90 95 96 97 98 101 103 104 99 96 97 100 103 102 101
95 98 103 92 83 77 77 77 82 85 83 68 61 54 55 63 74 83 91 97 97 95 97 96 98 97 95 98 101 101 101 102 104 106 106 108 106 105
98 102 88 80 74 72 72 74 76 74 74 71 59 49 46 49 60 64 77 91 98 98 97 100 99 99 100 102 103 104 107 110 110 111 109 102 99 101
102 86 77 71 68 68 67 69 68 63 59 58 54 45 36 35 42 50 56 70 85 93 97 100 100 99 100 103 104 105 104 103 103 105 104 106 108 103
85 74 70 66 64 65 64 63 60 57 54 50 46 43 37 32 29 28 31 40 51 65 78 86 90 94 97 101 104 108 107 106 104 98 95 91 86 80
70 66 63 63 62 61 61 59 58 54 53 50 46 41 37 35 35 34 33 36 39 43 47 52 56 62 64 66 69 71 71 72 75 77 79 80 80 81
64 60 61 60 61 59 59 58 58 57 56 55 53 51 51 49 49 49 50 51 53 53 55 58 60 62 66 69 71 73 75 77 80 82 84 85 88 90
56 56 58 58 59 57 57 58 58 58 58 56 56 56 56 56 56 55 55 58 61 66 70 70 72 73 75 76 77 78 79 81 84 83 82 84 85 84
56 56 55 57 58 57 57 58 59 60 60 60 59 60 59 59 60 62 64 65 67 69 69 70 69 70 71 72 72 70 70 72 76 77 77 77 75 73
50 50 55 57 58 58 59 60 61 63 64 63 63 64 64 66 67 70 73 72 69 63 61 62 64 69 71 70 66 62 64 67 71 69 66 64 62 60
49 51 54 57 57 58 58 60 62 65 66 65 65 65 67 70 73 77 76 69 63 58 58 64 66 70 77 73 65 57 57 58 61 59 56 54 52 51
51 53 56 58 58 58 59 61 65 67 66 66 66 69 73 73 76 76 68 65 62 62 63 68 71 71 71 74 69 53 46 49 53 51 48 45 42 43
53 55 57 58 58 58 61 65 68 68 68 69 71 73 74 75 78 71 69 68 68 67 67 67 68 69 70 71 65 51 44 43 43 42 40 38 39 40
54 55 56 56 58 61 65 69 69 68 71 73 73 75 76 78 77 71 70 71 71 67 66 65 65 67 66 64 59 50 41 38 35 36 36 35 36 36
53 54 54 57 60 65 67 67 70 72 74 75 77 76 79 79 72 70 71 71 71 69 67 64 62 60 60 57 52 44 36 36 30 31 34 33 33 32
51 52 56 60 61 63 65 69 71 72 73 75 75 78 79 71 69 71 72 72 72 70 65 57 55 55 53 50 44 35 34 33 33 25 29 30 30 30
51 54 55 58 61 64 68 70 69 70 72 73 77 77 70 70 72 72 72 73 70 64 59 54 50 47 45 39 35 32 32 33 29 23 28 25 26 27
50 52 54 58 63 68 69 69 70 71 71 75 73 69 71 71 72 73 72 67 61 56 51 47 43 41 38 31 21 35 31 31 23 22 26 23 20 23
49 53 59 65 68 72 71 69 69 69 73 72 68 70 71 72 72 72 66 59 54 49 43 40 38 36 33 26 21 34 28 25 21 22 24 23 19 18
54 60 64 66 69 72 71 69 67 69 72 69 69 70 70 70 70 66 59 52 47 42 36 33 32 28 26 26 24 30 27 22 20 20 22 20 19 18
58 62 65 67 71 72 70 68 68 69 70 69 69 69 68 68 68 59 53 46 41 37 32 28 23 24 29 27 20 23 27 22 20 20 21 19 17 15
61 64 66 69 71 71 70 68 69 69 68 69 69 68 66 66 62 53 48 43 40 34 31 24 25 29 28 25 17 20 23 24 23 20 19 17 14 14

GFSNE_250_spd_084.txt.gz
Wind_Speed
105 108 107 105 106 104 106 107 102 94 90 94 96 89 79 72 64 62 64 63 65 68 66 58 45 42 44 57 67 78 84 83 81 83 88 89 85 87
108 107 104 105 103 104 105 100 92 90 91 96 92 80 74 65 61 62 62 63 66 68 64 58 54 50 44 44 59 77 85 91 94 90 87 90 96 89
102 104 101 100 101 101 95 89 89 90 94 94 83 76 67 62 60 61 61 61 62 63 58 57 53 50 46 46 53 64 82 88 98 94 89 91 96 92
98 97 98 98 93 92 87 86 90 95 98 88 77 69 61 60 61 61 60 60 60 60 59 56 53 49 47 46 45 47 59 79 98 93 98 100 99 99
97 94 93 84 86 84 86 88 93 98 88 78 71 64 61 59 62 62 61 60 60 61 60 59 58 57 54 51 48 47 48 55 73 88 99 102 104 105
89 86 81 82 81 85 87 91 98 89 80 73 64 57 58 62 63 63 62 61 61 63 62 61 61 60 60 59 57 56 56 58 61 65 75 91 94 102
79 79 79 79 81 86 90 96 90 81 75 66 58 59 62 63 64 64 64 64 65 68 66 65 64 64 63 62 60 60 62 66 67 70 72 77 80 80
75 74 75 78 84 89 92 87 79 76 66 60 60 62 64 64 65 64 65 67 70 70 70 71 70 67 65 64 62 62 64 64 63 64 66 69 75 79
70 72 76 83 88 91 84 76 73 65 59 60 62 64 64 65 64 65 67 68 71 73 73 70 69 66 66 66 64 61 60 60 62 65 67 68 68 70
70 78 81 84 86 80 74 69 63 59 60 61 62 64 64 63 65 66 68 70 73 74 73 72 69 69 68 65 61 60 61 62 63 65 67 68 70 72
76 81 81 79 73 70 66 60 58 59 60 62 63 63 63 64 65 70 73 74 76 75 74 73 71 70 65 66 67 66 65 65 65 65 66 67 68 71
77 71 74 68 66 64 58 57 58 59 61 62 61 62 63 66 70 73 76 78 78 74 72 74 73 69 71 70 68 65 65 63 64 64 65 66 69 70
70 67 62 62 60 58 57 58 59 60 60 59 60 61 65 70 72 76 78 79 77 74 73 75 73 72 73 72 70 64 65 61 61 61 61 64 65 62
59 56 57 57 57 57 57 57 59 60 59 59 61 65 69 72 76 79 81 80 76 75 75 72 72 74 73 70 70 63 55 51 49 49 52 55 54 54
53 54 54 55 55 55 56 57 59 58 58 60 63 68 72 74 78 82 83 80 77 76 73 71 72 73 70 67 62 58 53 51 43 42 43 45 46 45
52 53 54 53 53 54 56 56 56 57 59 62 66 69 71 75 80 83 84 77 77 74 69 71 72 71 67 61 56 54 49 48 40 37 38 38 38 36
54 53 53 53 53 53 53 54 56 57 59 64 67 70 73 77 80 83 80 76 75 72 69 67 70 69 63 57 52 49 45 39 37 33 32 29 27 30
51 51 51 51 50 51 53 54 56 58 61 65 69 72 76 78 81 81 75 75 73 70 69 68 67 65 59 53 51 44 40 33 26 25 23 19 21 26
48 49 49 48 48 51 53 54 57 60 64 69 73 74 77 80 81 76 74 72 70 70 67 67 67 63 57 49 39 44 35 24 17 21 24 23 26 30
47 47 47 47 49 49 54 57 60 63 68 72 74 75 78 81 78 73 73 70 70 69 65 63 64 61 55 51 38 23 34 36 28 24 28 27 29 29
44 44 47 46 47 52 57 60 63 66 71 73 74 75 79 79 74 73 72 70 69 68 67 63 59 57 53 49 45 28 25 36 39 28 29 27 25 24
44 44 44 47 52 57 59 63 66 69 71 73 75 78 79 75 73 72 71 71 67 65 65 64 60 54 49 46 45 40 29 27 36 31 26 25 21 22
41 44 48 51 55 58 62 66 70 71 72 74 77 78 74 72 72 70 71 68 66 64 64 64 60 55 48 42 40 41 37 34 32 26 23 24 23 22

GFSNE_250_spd_087.txt.gz
Wind_Speed
98 100 101 105 104 104 102 103 100 96 97 96 93 94 92 91 89 87 76 69 62 60 58 59 58 57 59 58 48 43 40 35 37 52 70 82 82 77
103 103 106 104 102 102 101 101 97 96 93 91 89 91 89 91 91 79 72 64 59 58 59 58 56 56 57 56 54 50 45 42 39 38 57 79 90 83
107 107 106 101 98 98 99 96 93 92 87 87 88 88 89 92 81 74 65 59 58 60 60 58 57 57 58 58 57 52 49 50 47 43 44 62 86 89
103 99 97 95 96 99 92 89 87 84 85 86 85 87 91 85 74 66 60 60 62 62 60 59 58 59 60 61 60 57 55 53 53 52 50 48 56 74
99 97 95 96 87 86 84 81 80 82 83 83 86 90 88 74 66 61 60 62 62 62 60 59 60 61 61 62 63 61 59 58 57 57 56 55 55 55
93 93 87 80 79 80 78 79 78 79 81 83 88 88 74 66 62 59 62 62 63 62 61 61 62 63 65 66 65 62 60 60 60 60 60 60 61 63
88 77 75 77 77 76 77 77 76 78 83 86 86 74 65 61 61 63 62 62 62 62 62 64 66 68 68 68 65 61 60 60 62 64 65 65 66 68
75 75 74 72 72 74 75 72 75 82 85 78 73 66 61 61 62 62 62 60 63 63 64 67 68 69 69 66 63 61 61 63 62 60 59 60 61 64
73 70 69 69 71 71 68 71 79 84 79 71 66 61 60 61 62 62 60 62 63 65 68 70 71 71 70 66 63 63 62 61 59 58 59 59 60 62
67 66 67 69 66 65 69 79 83 77 70 65 61 60 61 61 62 61 62 63 66 70 73 74 73 72 70 66 66 64 61 60 61 60 60 61 61 63
63 65 63 60 64 68 76 82 74 67 65 61 60 60 61 60 60 60 62 66 70 73 76 77 76 74 69 68 68 64 62 62 62 63 64 65 64 66
58 57 58 64 69 75 77 69 62 63 62 59 59 59 59 58 60 62 65 69 71 75 78 80 79 76 73 71 65 62 61 62 63 64 67 66 65 65
55 59 64 70 74 68 65 60 61 60 58 58 57 57 57 59 60 64 67 71 74 77 81 83 81 76 73 70 65 62 61 61 61 59 58 58 59 59
62 67 66 66 66 61 58 59 59 59 57 57 57 56 58 59 62 66 70 74 77 80 83 84 82 76 73 67 66 63 61 60 56 52 52 52 51 52
61 64 64 63 57 56 57 59 58 56 57 57 55 57 58 60 65 68 74 78 79 82 84 84 78 74 68 65 65 64 62 58 53 49 47 45 45 46
60 61 59 54 54 56 58 56 55 55 56 55 56 57 60 64 68 72 77 79 81 83 84 80 78 71 65 62 62 62 59 56 48 46 41 39 39 40
58 53 51 53 54 56 54 53 53 54 55 56 56 58 62 67 70 74 79 81 85 85 79 73 75 71 64 62 58 58 57 52 47 40 35 30 34 33
50 50 52 54 55 52 51 50 51 53 55 55 57 61 65 68 72 75 79 83 86 83 74 72 70 70 66 60 58 57 53 48 42 36 31 31 28 28
50 53 54 52 49 49 47 48 51 53 53 57 60 64 68 70 74 76 80 84 84 76 72 69 68 68 67 63 56 50 52 47 45 36 32 33 34 30
52 50 47 47 48 46 47 51 51 50 55 58 62 66 69 73 77 78 81 82 76 73 72 67 64 64 64 66 62 50 45 43 42 39 35 34 38 31
44 44 46 45 45 47 49 49 49 52 56 61 65 68 72 76 77 79 80 75 71 71 71 67 62 61 60 59 60 58 49 38 38 41 36 36 35 33
41 42 43 45 47 47 47 50 52 54 59 65 67 71 75 77 78 79 75 71 69 69 69 68 65 62 58 56 57 57 53 40 31 36 37 38 36 33
42 44 45 45 44 46 49 52 55 58 63 67 70 74 76 77 78 74 70 70 70 70 68 67 64 61 58 54 52 51 48 41 34 31 33 35 37 30

GFSNE_250_spd_090.txt.gz
Wind_Speed
98 97 97 99 101 103 104 107 109 109 108 105 100 98 91 91 89 89 88 87 87 87 75 65 57 56 56 55 54 51 48 47 44 39 31 30 35 52
100 100 99 103 106 107 110 112 111 111 105 98 98 92 89 87 87 87 86 86 89 77 68 59 57 58 59 56 52 50 48 48 46 43 40 35 33 41
103 104 105 108 108 110 113 113 110 104 99 96 87 85 85 85 85 84 85 87 78 69 60 58 60 60 59 56 53 51 49 50 49 49 47 46 43 41
106 110 112 111 114 114 110 104 104 99 92 85 83 83 82 83 83 83 87 78 72 62 59 61 62 61 60 56 54 54 55 55 55 54 52 49 48 47
112 115 115 115 111 103 101 100 97 91 85 81 79 79 81 80 80 85 80 72 64 60 61 62 63 60 58 57 58 58 59 60 60 57 54 51 51 51
115 114 110 105 103 100 96 93 87 83 80 77 77 78 77 78 83 83 73 66 62 62 62 63 60 59 59 60 61 63 63 63 61 58 54 52 52 53
105 103 102 99 94 95 91 84 80 79 75 74 76 73 76 80 86 75 67 62 63 62 63 63 61 63 64 64 65 65 66 64 60 55 53 55 57 59
100 96 96 93 90 88 83 78 77 73 73 73 70 74 76 85 76 69 63 62 63 63 62 62 63 63 65 66 67 68 67 64 59 57 58 58 58 57
96 92 89 85 81 79 75 75 71 69 71 69 73 77 82 73 69 67 63 61 63 62 62 63 65 67 68 69 70 71 69 64 60 60 61 59 58 58
84 82 79 77 75 73 69 67 68 66 66 70 75 78 72 66 67 62 61 63 62 63 64 65 68 70 73 73 73 74 71 65 62 61 59 59 60 60
76 75 71 70 67 64 66 63 59 63 68 74 75 71 65 65 64 63 62 62 62 63 65 68 71 74 76 76 78 79 73 67 64 61 60 60 60 62
68 67 63 62 62 65 59 59 63 68 74 71 69 65 64 64 62 62 62 61 62 63 67 72 75 78 78 78 79 79 70 66 62 63 61 60 61 61
60 60 59 62 61 58 60 63 69 70 70 67 62 63 64 62 61 61 60 61 63 66 72 76 79 80 81 81 81 76 72 65 63 61 60 59 60 58
59 62 59 55 56 60 62 68 68 67 66 60 62 63 60 60 60 60 60 62 65 69 74 79 81 82 84 84 81 72 69 63 61 59 58 59 59 55
57 53 51 57 61 63 65 64 64 61 58 60 62 59 59 59 59 59 59 64 67 72 77 80 82 86 86 84 76 70 67 63 59 58 54 53 55 53
50 52 58 61 60 61 63 62 58 56 58 61 57 57 57 57 57 58 63 66 70 74 77 81 85 88 87 78 73 68 64 64 59 58 54 48 48 50
57 59 57 57 59 60 60 56 56 57 59 55 55 56 55 54 56 61 65 69 73 76 78 82 85 88 83 75 71 65 62 62 61 56 54 48 40 44
51 54 56 58 59 56 54 55 57 56 52 53 54 53 53 54 58 63 67 72 75 78 82 83 83 80 76 74 71 65 61 59 59 54 52 50 36 37
52 53 55 56 54 54 56 54 51 49 50 51 52 51 53 57 61 65 70 75 77 81 83 82 77 74 72 71 71 65 59 55 57 59 53 50 42 29
49 50 50 53 54 51 49 47 47 48 49 51 49 51 56 60 64 69 73 76 80 83 82 74 71 72 71 70 70 70 62 58 56 58 53 49 46 36
44 47 50 49 46 45 44 44 46 48 48 48 50 54 59 64 67 72 75 78 82 84 77 70 69 69 68 67 66 66 65 62 55 50 49 44 43 40
43 45 46 45 44 43 44 46 46 43 46 50 53 57 62 65 70 74 77 80 82 80 72 70 70 68 65 63 63 64 62 56 52 48 43 40 41 41
44 42 40 41 43 44 47 47 45 47 49 52 56 60 64 68 73 77 78 80 81 74 70 71 70 67 64 62 62 59 54 52 49 46 38 34 36 39

GFSNE_250_spd_093.txt.gz
Wind_Speed
94 99 102 101 104 105 105 106 108 110 108 113 115 117 119 120 111 104 97 89 84 83 82 79 82 73 64 55 53 51 49 44 42 41 40 40 37 35
106 106 107 108 109 107 110 112 113 112 113 114 119 121 119 110 105 98 92 84 82 82 80 79 78 68 57 54 54 52 48 45 43 43 42 43 44 41
111 111 112 112 113 113 113 113 115 114 116 120 120 115 108 104 97 90 84 82 81 80 79 81 72 63 56 56 55 52 51 49 48 48 48 48 49 49
114 115 116 117 115 115 116 119 119 120 120 118 113 108 102 97 89 84 82 80 79 79 78 77 66 59 59 58 56 55 53 52 51 50 50 50 52 53
120 120 119 119 118 119 117 118 117 116 116 112 107 102 94 88 82 81 79 77 78 79 80 69 63 60 59 59 58 57 56 54 54 55 53 53 53 54
111 112 111 112 113 112 112 113 112 112 108 106 99 94 86 80 79 77 76 75 78 80 69 67 63 60 60 60 59 60 60 60 60 59 57 54 53 52
108 111 111 112 111 113 111 108 108 104 102 99 90 82 77 76 76 74 74 77 79 70 66 66 62 62 62 61 62 62 63 65 66 64 61 57 55 51
108 110 110 109 108 107 106 103 101 97 94 85 77 74 74 74 70 70 75 78 74 64 66 65 63 63 62 63 64 66 68 70 70 67 64 60 55 52
105 105 103 103 102 99 97 95 89 86 80 75 73 72 72 67 69 73 77 74 66 65 66 65 64 62 63 64 66 69 72 74 73 69 66 59 54 54
91 92 93 92 89 87 85 80 77 73 71 70 68 69 64 67 72 75 73 69 64 66 65 64 63 63 64 67 70 73 76 77 75 72 67 59 55 54
83 84 81 80 78 77 73 69 67 68 66 65 66 63 66 70 74 73 69 64 66 64 63 62 62 63 66 69 73 77 80 80 77 73 67 59 56 56
76 75 74 70 68 67 66 64 61 63 63 65 63 64 69 72 71 68 63 65 65 63 61 61 61 64 68 73 76 79 82 82 78 73 65 61 58 55
69 70 68 65 64 63 62 62 63 63 60 59 63 69 71 69 67 62 64 64 62 61 61 59 63 67 72 76 79 81 84 84 78 69 65 62 60 57
67 65 61 63 61 60 61 60 64 57 58 62 67 68 68 66 61 63 63 59 59 58 58 62 66 71 75 78 81 83 86 82 73 71 67 64 61 59
58 59 61 58 58 60 60 55 53 56 62 64 65 65 65 60 62 62 58 57 56 56 60 64 69 74 78 81 84 85 85 75 69 68 66 63 62 60
56 56 56 56 59 52 51 52 56 62 60 63 64 62 59 60 60 56 55 54 54 57 62 67 72 77 81 83 85 85 77 72 68 65 65 63 59 58
54 56 56 51 48 51 54 57 57 58 62 62 59 59 60 58 54 52 53 53 56 60 64 70 75 79 84 86 86 78 73 69 65 64 64 64 59 55
47 46 47 49 52 52 52 54 56 59 59 57 59 57 54 52 50 51 51 54 58 63 67 71 76 81 84 87 80 74 70 67 65 63 62 63 63 55
47 49 51 51 49 51 52 54 56 55 56 55 52 50 49 49 49 49 52 56 60 65 69 73 78 81 83 84 75 72 68 65 64 62 61 61 60 52
51 48 46 48 52 51 51 51 52 54 52 49 47 46 48 48 48 51 54 57 62 67 71 75 80 81 83 75 73 71 64 66 64 63 60 56 52 50
44 47 50 49 47 49 47 48 50 49 48 47 47 48 49 50 51 54 56 60 65 69 74 78 80 81 79 70 71 69 64 62 64 60 54 51 49 47
50 49 46 47 49 46 45 45 44 44 44 45 47 48 50 52 54 57 59 64 67 71 76 79 79 80 72 67 69 66 64 63 62 57 48 45 45 46
48 48 49 49 47 47 47 46 47 45 43 45 47 49 52 54 56 59 62 66 69 72 77 79 78 78 69 67 66 63 62 63 59 52 44 41 39 38

GFSNE_250_spd_096.txt.gz
Wind_Speed
88 88 87 86 90 92 96 94 99 108 112 115 117 118 119 121 119 116 115 111 107 101 96 85 81 78 75 73 72 61 52 48 46 43 41 40 39 39
93 94 94 97 99 100 102 107 112 115 116 117 119 122 120 114 113 113 110 107 101 95 88 78 77 75 74 75 66 56 50 49 47 45 44 43 43 43
102 103 105 105 106 108 111 114 116 117 117 122 118 113 113 115 111 109 105 100 98 89 78 76 74 73 74 72 60 54 52 51 49 47 46 45 43 44
110 109 111 111 113 114 113 118 119 120 121 113 115 116 114 109 107 104 100 97 89 80 76 73 70 74 75 65 58 56 54 52 50 50 49 48 47 47
114 114 115 115 117 119 121 120 115 112 112 114 113 113 113 106 105 98 95 86 78 75 73 71 74 75 70 61 58 57 55 53 54 53 51 51 50 49
118 119 121 119 117 113 110 109 111 111 112 112 110 110 107 104 96 90 82 76 72 72 70 72 74 72 64 60 60 58 56 55 56 55 55 56 55 55
111 111 110 108 109 110 110 108 109 108 109 108 108 107 99 91 85 77 74 71 69 69 71 73 74 67 62 61 59 57 56 57 58 59 61 62 62 61
109 110 109 109 108 109 106 106 106 106 104 101 95 90 84 79 71 69 67 65 65 68 73 73 68 63 62 61 60 58 58 58 61 64 67 68 68 64
108 108 108 107 107 105 105 103 97 94 92 90 85 79 73 69 66 65 64 65 67 69 71 70 64 62 62 60 58 57 57 61 65 69 72 73 70 63
106 107 107 106 104 104 102 97 93 88 86 82 73 68 65 65 62 61 63 62 68 71 69 67 61 63 59 58 56 56 59 64 69 73 76 75 71 63
102 102 99 99 97 96 91 89 85 84 75 71 66 64 61 59 61 63 61 65 69 68 66 60 62 59 57 56 56 59 63 69 73 77 78 77 70 62
91 89 88 86 86 84 82 78 77 71 70 66 64 62 59 60 62 59 63 67 67 65 61 60 59 56 55 55 57 62 67 72 76 79 80 79 69 62
80 80 76 74 72 71 69 68 65 64 64 62 61 59 60 62 57 62 65 64 64 61 59 59 55 54 54 56 59 64 70 73 78 80 82 79 68 65
70 69 68 67 65 62 60 59 59 60 59 58 59 61 62 57 59 64 64 64 59 58 59 54 54 53 54 58 63 66 71 76 79 81 82 74 69 66
62 62 60 59 58 57 56 55 57 57 56 59 60 56 55 58 61 62 62 59 59 56 52 53 53 52 56 61 67 70 75 79 80 80 75 70 69 66
55 56 55 53 55 56 53 53 55 56 58 58 54 54 57 58 60 59 58 57 50 51 51 51 51 55 59 64 68 72 77 81 81 77 72 70 67 63
50 51 52 53 54 55 54 56 57 58 54 51 53 54 56 58 56 56 52 49 49 50 50 50 53 58 63 67 71 74 80 80 78 73 70 69 66 61
49 50 51 52 54 54 54 52 51 50 50 51 51 54 55 53 53 50 47 48 48 49 49 52 56 61 66 69 72 77 80 79 73 70 66 67 67 62
47 48 47 47 48 48 48 50 49 51 49 49 53 52 51 52 49 47 47 48 49 49 52 54 58 62 67 73 75 78 79 76 69 67 63 63 65 62
45 45 45 45 45 46 48 51 48 47 49 49 50 48 49 48 47 46 47 48 49 51 54 56 60 63 68 73 77 79 75 72 68 65 62 62 63 57
47 48 49 49 49 48 46 46 47 49 47 47 46 46 46 44 44 45 46 48 51 54 55 58 62 65 69 72 77 77 73 66 65 61 59 60 61 55
43 44 44 45 46 47 48 49 49 48 48 48 47 48 47 46 48 49 50 51 53 55 58 61 63 66 69 73 77 76 70 65 63 60 56 58 57 54
51 50 50 51 52 53 53 50 49 50 50 50 50 50 50 51 51 52 53 54 56 58 60 62 64 67 69 73 74 74 65 64 63 60 54 53 51 47

GFSNE_250_spd_099.txt.gz
Wind_Speed
94 94 90 87 89 88 84 86 88 90 94 96 101 108 108 110 114 116 120 119 112 110 106 101 95 87 75 70 69 68 63 64 55 48 42 38 37 35
98 99 99 98 96 93 92 93 95 98 101 103 105 114 113 117 117 121 117 112 111 106 102 97 87 78 70 68 67 66 64 64 53 48 43 40 39 37
99 101 103 104 103 102 102 104 105 106 109 111 112 113 117 118 121 116 113 111 108 104 98 85 78 71 69 66 66 66 66 58 52 48 45 43 41 41
106 106 106 107 107 107 107 109 107 110 112 115 115 114 118 121 112 112 111 109 105 100 89 75 70 65 65 64 66 67 63 54 51 49 45 44 43 43
107 107 110 111 113 114 114 115 114 114 115 116 119 121 116 111 111 109 107 103 99 85 77 67 65 64 62 65 66 66 59 52 51 49 46 45 44 44
106 106 108 109 110 110 112 113 115 115 117 115 111 108 107 108 107 106 104 95 87 78 67 63 62 61 63 66 66 63 55 54 51 49 47 46 47 49
103 105 105 106 108 107 108 109 108 108 108 106 106 106 106 106 103 103 94 86 79 70 64 62 59 60 65 66 65 59 55 54 51 49 47 49 51 54
103 104 103 103 103 104 104 105 105 104 106 105 104 103 102 100 97 93 86 76 67 64 61 59 59 63 66 67 62 55 55 52 51 49 50 53 56 60
100 98 98 100 101 101 102 102 104 102 102 101 103 100 99 96 92 83 76 69 65 59 58 61 60 64 65 62 57 55 54 53 52 51 54 57 61 64
99 99 98 99 98 99 100 100 102 101 100 99 97 92 90 85 78 72 65 64 61 57 60 58 61 65 63 59 55 56 53 52 51 54 58 61 64 68
101 101 101 101 99 99 97 97 96 93 89 87 85 83 76 71 66 64 61 59 58 58 60 60 63 64 61 56 56 53 52 52 53 57 62 64 68 72
88 89 87 87 85 86 86 85 84 81 79 78 74 69 64 60 59 60 57 60 59 61 63 61 63 62 57 57 54 52 51 51 55 60 65 68 72 75
79 79 78 79 76 76 76 75 74 72 71 66 62 59 56 56 56 56 57 59 61 59 59 61 60 57 58 54 51 51 50 53 58 63 67 70 75 77
74 72 71 69 68 67 65 65 63 62 59 58 56 52 52 54 53 54 57 60 58 58 58 58 57 56 52 51 50 49 52 56 61 66 70 73 78 77
66 65 63 61 59 59 59 58 55 54 53 53 50 50 52 52 53 56 56 55 55 55 56 55 54 51 51 52 48 48 53 57 64 68 72 76 78 78
57 56 56 55 54 52 52 51 51 51 51 49 47 50 51 51 53 56 53 53 52 53 53 51 49 49 52 50 50 52 56 60 64 68 73 76 77 73
49 50 50 50 49 49 49 49 49 49 49 50 50 52 52 51 50 51 52 51 51 50 51 48 49 51 52 50 52 55 58 62 66 70 74 77 76 69
45 46 46 47 48 47 47 48 49 48 50 51 52 49 47 47 49 50 49 49 49 48 46 47 48 49 50 51 54 57 59 63 66 70 74 75 76 67
43 43 43 44 45 45 45 46 45 46 47 47 45 44 48 50 50 49 47 47 46 45 44 45 46 48 52 56 56 58 61 63 67 70 71 72 72 68
42 43 43 41 41 41 41 42 43 44 45 45 46 50 49 47 50 47 48 46 46 47 47 48 50 51 54 58 60 59 61 63 68 71 70 70 67 65
39 40 41 42 43 44 45 46 45 45 47 49 47 45 47 51 48 48 49 47 49 50 49 49 51 54 57 61 62 61 61 64 69 71 68 67 66 63
40 40 40 40 40 41 42 43 45 47 46 45 47 48 50 50 50 50 51 52 52 53 53 52 53 56 58 62 63 63 64 65 68 68 65 63 63 63
47 46 46 46 46 47 47 48 48 49 50 51 52 54 54 52 51 51 52 55 56 56 55 55 57 59 60 63 65 66 67 68 69 66 62 57 57 56

GFSNE_250_spd_102.txt.gz
Wind_Speed
97 96 97 102 104 102 100 99 103 101 100 99 98 98 98 99 100 102 106 109 112 115 115 117 109 104 100 93 85 78 67 60 58 57 56 49 41 37
101 102 100 99 99 103 103 100 99 100 96 98 100 102 104 103 105 106 111 115 114 116 115 107 103 102 96 87 79 71 63 59 57 57 57 49 41 38
96 96 98 102 103 103 101 103 104 103 104 105 108 106 107 105 110 113 112 112 112 111 103 102 100 96 94 84 76 64 61 58 58 58 57 47 43 40
98 96 96 96 97 97 99 101 104 105 105 105 105 108 109 109 110 110 107 105 102 102 100 100 97 94 84 73 67 62 59 58 59 60 54 48 44 41
98 100 98 98 98 98 98 100 102 102 104 106 109 107 106 107 104 104 102 99 99 100 98 95 93 83 74 67 62 58 57 60 59 58 52 48 45 41
102 100 99 99 99 98 98 100 103 102 103 103 103 104 106 104 103 100 97 97 98 97 95 91 85 76 67 61 60 57 57 59 60 56 50 49 45 43
100 100 101 100 98 98 99 100 101 101 101 100 101 101 102 101 98 95 95 95 95 96 91 82 76 67 62 59 58 57 59 58 59 55 50 49 46 44
95 96 98 98 98 98 98 100 100 100 100 99 97 97 96 96 98 93 92 92 92 89 82 77 70 61 58 57 57 58 59 61 59 53 52 48 47 45
93 94 96 96 96 97 97 97 97 98 96 95 94 94 95 94 95 93 92 88 84 79 71 68 62 58 55 56 59 60 58 60 57 54 52 49 47 46
94 95 96 97 97 97 97 98 97 97 96 95 96 96 96 97 92 88 82 77 73 70 64 62 57 55 56 57 59 57 60 59 55 53 49 48 46 49
90 90 91 92 94 96 97 97 95 93 93 93 92 89 87 84 81 78 73 69 67 64 59 57 54 56 55 57 56 57 58 56 53 49 49 47 49 52
84 84 83 83 82 84 85 84 82 82 81 81 79 78 75 74 72 70 66 64 61 59 54 52 53 54 57 54 56 55 55 52 50 50 49 48 51 55
81 81 81 81 80 79 77 76 75 74 71 70 70 68 68 65 63 61 59 57 53 54 51 49 51 52 52 54 54 52 51 49 50 50 48 51 54 58
74 74 74 74 74 73 72 71 68 66 64 63 61 60 58 58 56 55 53 51 51 49 47 51 51 50 51 52 51 50 49 50 51 49 51 54 56 60
63 64 65 65 64 63 62 61 59 59 58 56 56 55 54 52 52 51 48 49 47 46 47 50 48 50 50 50 49 47 50 51 50 51 54 56 58 61
54 54 55 55 56 56 56 56 54 54 53 53 52 51 50 50 48 45 46 45 47 48 46 45 48 49 49 48 46 45 47 47 50 53 55 56 59 62
48 48 48 49 51 51 51 51 51 50 51 50 49 50 50 47 47 45 46 47 46 44 44 47 48 48 46 44 43 45 46 49 51 53 56 57 58 62
44 42 43 43 44 44 44 45 46 47 48 48 46 46 48 48 48 47 46 44 42 43 46 47 47 47 47 44 46 46 48 51 54 55 58 61 60 62
40 39 39 39 40 39 38 39 41 42 43 43 43 44 45 45 44 41 40 40 44 46 45 47 47 48 49 48 47 48 51 54 56 57 60 62 65 65
39 39 37 37 37 38 38 38 38 39 39 39 40 41 42 42 41 42 44 49 48 44 46 46 49 51 52 54 54 50 53 57 59 61 62 64 66 68
40 38 38 38 35 35 37 38 39 40 40 41 42 44 44 44 45 48 49 45 44 46 47 47 50 53 55 57 57 56 56 59 62 65 64 68 70 68
45 44 42 40 40 39 38 38 37 37 39 43 45 47 48 48 48 46 46 47 48 50 50 49 50 52 55 58 61 63 62 59 63 66 66 68 69 67
50 50 51 50 47 45 44 42 42 43 43 44 45 46 46 47 48 50 51 52 54 54 53 53 54 56 58 58 60 62 61 60 64 65 63 62 61 60

GFSNE_250_spd_105.txt.gz
Wind_Speed
93 91 92 95 94 95 96 95 96 95 102 105 105 105 106 105 100 96 95 100 103 99 101 101 100 102 97 94 88 88 85 85 76 62 56 51 50 48
98 95 99 99 98 96 95 96 99 100 100 103 104 103 101 100 99 98 99 98 100 101 101 98 97 97 95 90 87 86 85 76 68 59 53 51 50 49
103 103 104 104 104 102 99 99 100 99 95 94 96 95 95 96 97 98 98 98 96 99 99 98 95 95 90 89 85 83 83 73 64 55 52 52 51 50
104 104 103 103 103 102 100 98 98 96 95 95 94 94 95 96 95 96 96 97 97 96 95 95 93 91 88 88 85 83 73 68 58 53 53 53 51 51
105 105 105 104 104 104 103 102 99 96 92 94 94 95 96 95 96 96 94 94 93 94 93 91 89 88 87 86 83 76 69 63 55 53 52 53 52 52
104 104 105 105 103 102 102 102 101 99 97 95 94 93 93 94 95 93 92 91 91 90 90 88 86 86 84 85 77 70 66 57 53 53 53 54 53 53
99 101 102 103 102 101 100 99 99 98 98 97 95 94 93 93 92 90 90 89 89 89 89 87 87 86 82 77 70 66 61 54 51 52 55 55 54 52
96 97 97 96 96 97 96 96 96 94 94 93 91 91 91 93 91 90 90 88 86 86 90 88 84 82 75 70 66 61 55 51 52 53 54 53 53 49
94 95 95 95 95 94 94 93 93 92 93 92 92 91 92 92 92 92 90 91 92 87 87 82 77 73 68 63 59 56 51 50 51 53 53 52 50 46
91 92 93 94 95 94 94 94 93 93 92 91 93 93 93 92 91 90 87 85 83 81 78 75 69 65 61 58 54 52 49 50 53 52 52 51 47 43
85 86 86 87 87 87 87 86 86 86 86 86 85 84 83 82 80 79 78 77 75 72 70 66 63 61 55 53 49 48 47 49 51 51 50 48 45 43
84 84 84 84 85 85 84 83 82 81 79 79 79 76 77 75 74 73 70 68 66 64 59 58 57 53 50 48 46 45 47 48 50 50 49 45 43 45
80 80 81 81 82 82 80 80 78 77 74 73 72 69 68 67 66 65 63 61 58 56 55 52 50 49 45 46 44 44 46 47 49 48 46 43 43 44
73 74 74 75 75 74 72 71 70 69 68 67 65 63 62 62 61 59 57 55 53 52 49 47 45 44 44 42 43 43 44 47 46 46 42 40 42 43
64 65 65 64 64 63 61 61 62 61 60 59 59 56 54 54 53 53 51 50 50 48 47 45 43 43 42 42 40 41 45 45 44 41 39 42 43 45
55 55 54 53 52 51 51 51 51 53 53 52 52 51 50 50 50 49 47 47 45 43 43 43 43 42 44 40 39 42 44 43 44 42 43 44 46 47
48 48 48 46 45 44 44 45 44 45 46 46 46 47 47 46 46 46 45 44 44 42 41 43 44 45 39 38 40 41 43 43 45 45 46 49 50 50
45 43 42 41 40 40 40 40 40 39 39 39 40 42 42 42 42 43 44 44 42 43 44 47 44 38 39 42 42 42 44 45 47 49 52 54 53 53
43 41 39 38 38 38 38 37 37 36 35 36 37 38 39 39 41 42 42 43 44 44 43 41 39 41 44 45 44 43 45 47 49 52 55 57 60 56
44 43 40 39 36 37 36 35 34 34 35 34 35 35 36 38 40 41 41 42 42 41 39 40 42 48 48 46 45 43 45 45 49 52 55 59 61 61
46 45 44 43 42 38 37 36 37 36 36 38 38 38 38 39 40 39 38 38 39 41 43 44 49 48 47 48 50 49 47 49 52 56 58 60 59 60
46 45 46 46 45 45 43 41 39 39 40 39 38 39 40 41 42 41 42 44 46 48 49 48 47 48 49 51 54 53 52 52 55 60 60 58 58 58
45 45 46 46 47 48 48 48 47 46 45 44 43 42 41 40 40 42 44 45 46 47 48 47 49 52 56 55 53 52 52 53 56 58 57 54 55 57

GFSNE_250_spd_108.txt.gz
Wind_Speed
100 95 93 92 93 95 97 93 93 93 91 95 94 96 97 97 98 98 95 95 93 89 90 91 87 85 85 87 85 83 84 81 77 75 74 65 57 50
96 98 98 96 97 99 100 99 99 97 95 97 97 98 97 96 96 92 92 94 89 89 88 89 88 86 84 84 84 80 80 78 77 74 71 64 55 48
97 97 98 101 104 104 104 102 103 103 103 102 99 98 99 98 97 95 91 91 89 88 88 89 86 84 80 80 81 79 77 76 74 74 68 58 54 48
104 106 106 106 108 108 107 107 108 106 104 103 103 103 102 101 100 98 92 89 90 88 86 84 81 81 80 80 80 80 78 75 75 69 63 57 52 48
111 114 114 115 112 111 109 109 108 108 106 105 104 102 102 101 98 96 93 91 91 89 85 82 81 79 80 79 79 77 75 76 72 66 61 54 48 46
111 111 111 109 108 107 105 104 103 102 102 101 100 100 98 98 97 94 90 89 87 85 85 82 80 78 77 78 79 79 74 70 66 61 54 49 47 46
107 107 107 106 104 103 103 101 99 99 98 96 96 95 94 93 92 90 89 86 84 83 83 81 81 79 80 80 79 73 70 66 61 56 51 47 45 45
104 104 105 103 101 99 98 97 96 96 95 94 93 93 92 90 89 88 87 86 86 85 84 83 82 81 78 76 73 67 63 59 55 52 47 44 45 44
98 98 97 95 93 92 92 92 92 92 93 93 92 92 91 90 89 87 86 85 85 84 81 80 77 75 74 71 68 63 58 55 52 47 44 44 44 43
92 91 90 88 87 87 86 86 85 84 83 83 83 83 82 81 81 80 78 76 74 74 73 71 70 68 66 63 61 56 53 49 46 43 43 43 43 42
88 87 85 84 84 84 84 84 84 82 81 81 79 78 77 76 76 75 74 72 70 68 68 67 66 63 60 56 53 49 47 44 41 41 41 41 41 42
83 83 84 81 80 82 82 81 81 82 81 79 78 75 73 72 72 69 69 68 67 65 64 63 59 57 54 51 48 45 42 39 40 41 41 40 40 40
81 82 82 81 80 79 80 79 79 78 76 75 73 70 68 66 65 64 64 62 61 60 59 56 53 50 48 46 44 41 38 39 40 39 40 39 39 38
78 78 78 75 73 72 71 69 70 68 66 65 63 60 60 61 61 60 59 57 55 54 51 49 46 45 43 41 39 38 37 39 39 40 38 38 38 36
74 72 71 69 66 64 64 62 60 56 55 53 51 50 50 51 52 51 50 50 47 45 43 41 40 38 38 37 37 36 39 41 43 40 39 39 39 38
70 66 63 61 59 57 55 54 50 48 47 45 43 43 42 43 43 41 42 42 42 40 38 37 37 35 35 36 36 37 40 43 41 41 41 41 40 41
65 61 59 59 56 53 48 49 46 45 43 42 40 39 39 39 39 38 38 38 37 36 35 35 34 35 36 36 37 40 43 41 41 43 42 42 41 43
60 54 53 52 51 50 46 45 43 41 40 39 37 36 35 35 35 35 34 34 34 34 34 35 38 38 38 39 41 44 41 39 41 44 44 44 42 44
53 51 50 49 49 47 45 43 41 41 38 37 37 36 34 33 33 33 34 35 35 36 37 39 41 42 42 42 42 37 37 41 45 45 45 46 45 43
53 51 49 50 51 49 47 45 42 41 40 37 36 34 35 34 33 32 33 34 35 37 40 41 41 42 43 41 39 36 40 45 46 46 48 49 50 50
51 50 48 48 49 48 48 48 47 45 43 42 40 37 36 36 38 36 35 36 35 37 38 36 33 37 40 41 41 40 45 45 47 48 50 53 53 53
52 51 50 50 49 49 49 48 49 49 48 47 44 43 41 40 39 38 39 41 41 40 42 40 39 41 44 46 45 47 47 46 49 52 54 54 52 51
53 52 51 50 51 50 49 48 49 48 49 51 49 48 47 46 44 44 44 43 43 43 43 42 42 44 46 46 46 49 50 52 53 53 54 53 54 55

GFSNE_250_spd_111.txt.gz
Wind_Speed
87 83 87 85 90 91 92 95 96 95 93 96 97 98 99 99 98 103 100 98 96 93 91 92 92 90 88 83 81 81 77 71 68 68 66 62 61 61
83 84 86 95 104 99 102 104 104 102 101 104 106 108 109 106 107 107 105 103 101 98 94 94 91 88 88 84 79 78 73 70 67 67 65 62 63 59
96 99 105 111 105 102 105 113 114 109 109 111 111 112 111 111 110 110 107 103 101 101 97 93 89 86 85 82 80 74 71 69 68 64 62 65 61 57
106 114 114 109 111 118 123 121 121 118 113 111 109 108 108 107 104 103 102 100 97 95 94 91 85 83 79 78 77 73 69 70 69 66 66 62 57 53
120 117 116 123 129 131 129 125 118 114 112 109 107 105 103 102 99 96 94 91 90 89 89 84 82 78 77 76 74 71 69 66 69 67 62 58 55 50
124 128 132 136 133 131 125 118 115 112 108 105 104 103 102 99 95 91 88 87 87 85 84 81 77 76 76 76 74 72 71 69 67 64 57 56 52 46
137 138 138 134 128 123 120 118 111 108 105 103 102 99 94 90 88 86 85 85 83 82 81 81 78 77 77 77 74 74 71 67 61 60 54 53 50 44
138 135 130 125 122 121 116 111 108 102 100 96 93 89 86 83 81 79 78 78 77 77 77 75 73 73 71 72 67 66 65 60 59 56 53 50 47 41
131 126 118 119 112 107 108 104 101 96 93 90 87 84 81 79 78 77 75 73 72 71 70 70 67 65 63 63 62 61 59 58 55 52 49 47 42 38
120 119 107 106 105 100 98 97 96 93 89 86 84 81 79 78 75 72 71 70 69 68 67 66 65 63 61 60 59 58 56 54 51 47 45 43 38 36
101 103 102 99 95 94 93 93 91 88 85 82 81 79 78 77 75 72 69 66 65 62 61 61 59 59 58 56 55 53 51 49 46 44 41 40 36 36
98 95 94 92 90 90 89 87 87 85 83 81 80 78 76 75 72 68 63 61 59 58 56 56 55 54 53 52 50 48 45 43 41 39 39 37 36 37
91 91 88 87 87 86 86 83 85 83 80 77 74 71 69 68 65 61 57 53 51 51 51 51 50 49 49 48 45 43 41 38 38 36 35 35 36 36
89 87 84 84 84 84 82 83 82 78 75 71 66 62 60 57 55 53 49 46 43 44 44 44 43 43 42 41 41 38 37 36 35 34 35 37 37 36
86 84 82 84 83 82 79 79 76 71 66 63 59 55 52 51 50 46 44 41 39 38 38 39 39 38 37 36 35 34 34 33 34 36 37 39 38 42
83 83 83 82 82 78 76 72 69 65 62 59 54 50 48 48 47 43 39 37 36 38 37 37 36 35 34 33 32 32 33 34 36 38 39 39 40 41
81 81 82 81 77 73 70 66 61 56 53 51 48 46 44 43 42 39 36 35 35 36 36 35 34 33 32 31 31 32 34 36 37 38 39 40 42 41
81 80 79 76 72 70 66 58 54 53 50 49 47 44 43 42 40 37 36 34 33 33 34 34 34 32 30 31 32 34 36 37 39 40 43 44 41 41
80 80 75 70 69 65 58 55 54 53 51 48 46 45 43 41 39 36 34 35 34 33 33 33 34 33 33 33 38 40 40 41 41 43 43 41 40 43
77 76 71 68 65 58 55 55 54 53 51 50 48 46 45 42 40 38 35 35 35 33 33 33 35 34 37 39 40 41 42 43 45 45 43 45 45 43
74 73 70 65 61 58 56 55 53 52 51 50 49 49 47 46 44 42 40 36 37 38 38 35 32 38 40 42 43 40 41 43 43 43 45 47 48 48
73 70 66 62 60 59 57 54 53 52 52 50 50 49 49 50 50 48 45 44 41 40 41 41 40 42 43 43 43 42 44 45 44 45 47 49 51 51
67 65 63 61 60 58 58 56 54 51 51 51 50 50 49 49 51 52 52 50 48 47 46 44 42 44 47 47 48 48 49 48 47 48 49 50 52 55

GFSNE_250_spd_114.txt.gz
Wind_Speed
63 70 76 77 77 80 86 87 82 80 86 92 92 94 100 103 107 116 121 122 118 110 103 99 97 95 95 93 90 82 75 74 72 73 69 64 60 55
70 72 76 80 84 85 88 90 91 92 91 99 100 100 112 113 120 122 127 113 103 97 93 94 92 88 88 84 83 78 73 72 66 67 65 61 56 54
74 79 84 89 93 95 97 102 100 99 101 103 109 113 117 123 133 127 115 105 99 97 91 89 85 85 82 78 76 72 69 65 66 64 64 61 57 54
94 95 96 101 105 106 110 109 112 114 111 113 115 122 131 133 120 113 102 100 94 90 89 86 83 80 79 77 73 69 65 65 66 65 62 60 59 55
99 105 108 112 111 113 117 118 119 120 121 125 125 139 140 128 117 107 106 96 91 87 84 81 78 76 75 74 72 70 66 65 65 66 62 62 60 56
106 108 112 112 116 122 125 130 131 130 132 136 141 145 135 125 115 108 98 92 87 82 79 76 73 71 69 70 68 66 65 66 67 67 64 62 58 49
113 114 114 116 120 126 130 135 135 139 141 145 149 140 128 118 111 101 94 88 83 80 76 73 71 68 66 64 64 59 61 60 61 60 57 56 53 48
116 117 120 124 130 133 138 141 143 147 149 149 146 132 123 112 103 95 90 86 82 78 73 68 67 66 63 63 63 58 57 55 55 55 54 52 50 48
122 126 130 132 138 139 144 148 150 151 150 145 136 121 113 101 96 91 89 83 78 73 68 66 63 62 61 60 60 58 56 54 55 53 51 52 49 48
130 134 137 140 146 148 149 146 150 152 139 134 122 111 100 96 91 89 84 78 74 68 64 62 59 57 58 57 56 55 53 53 53 53 50 48 46 45
139 141 144 148 147 150 148 148 146 135 121 111 104 99 94 91 88 84 79 75 69 62 57 53 50 50 52 51 51 52 51 50 50 48 47 46 46 44
147 149 152 153 152 149 148 140 127 117 109 99 96 94 91 88 84 79 74 67 63 55 48 44 43 44 44 46 46 46 46 45 44 44 45 45 43 42
151 156 159 158 151 144 131 125 111 102 97 93 92 91 87 83 78 72 66 61 57 51 45 42 40 40 40 39 40 41 41 41 42 42 42 42 42 40
158 152 142 134 131 125 110 104 99 96 92 92 88 86 83 78 71 66 61 56 50 47 43 41 39 38 36 37 36 38 36 38 39 39 40 41 39 39
141 133 131 122 110 103 97 92 94 92 90 88 84 81 77 70 64 58 53 49 45 43 42 40 38 37 36 35 35 36 36 37 38 39 39 39 39 40
122 118 109 101 98 95 92 93 91 90 88 85 80 75 68 62 55 50 48 46 43 39 38 38 37 36 35 34 34 36 37 37 37 37 38 38 39 40
104 99 96 95 94 92 90 89 89 87 86 79 75 67 60 54 50 48 47 45 42 39 36 36 35 35 34 34 34 36 36 36 37 37 38 38 39 40
96 95 92 91 90 89 89 87 85 84 80 73 66 60 54 52 50 47 46 44 43 39 37 34 34 34 32 34 35 36 36 36 37 37 38 38 39 41
91 90 90 88 88 87 85 84 81 80 73 66 61 56 53 51 49 47 46 45 43 41 37 35 34 34 33 33 34 34 36 36 37 37 39 40 40 42
88 85 86 85 84 83 82 81 77 72 68 64 58 54 53 52 49 48 47 46 45 44 41 37 34 34 34 36 36 36 38 39 40 41 43 42 42 44
86 85 84 82 81 81 80 74 73 70 67 62 57 54 53 52 50 48 48 47 47 47 46 42 37 37 36 36 40 41 42 43 44 43 44 47 49 50
85 83 81 81 80 77 74 72 71 67 62 58 56 54 53 52 49 49 49 48 48 49 49 47 45 44 42 39 41 42 43 45 46 47 49 50 49 46
84 82 79 77 75 74 73 71 66 62 58 56 56 56 54 52 50 48 48 49 49 49 49 50 51 51 50 47 44 44 45 45 46 48 50 49 50 52

GFSNE_250_spd_117.txt.gz
Wind_Speed
65 64 65 70 70 70 65 66 71 74 76 79 83 78 86 94 95 98 99 101 104 111 114 118 130 106 98 83 73 70 69 66 64 63 57 57 52 50
63 74 78 76 73 70 73 75 77 76 79 85 90 98 100 105 109 109 108 112 117 120 124 131 115 98 88 77 71 69 66 64 59 59 57 55 52 52
77 77 81 76 76 76 76 79 81 84 91 99 101 107 111 115 115 113 122 124 131 139 142 121 114 97 83 75 68 66 63 62 60 57 53 54 52 52
87 85 80 83 77 82 84 86 91 98 100 105 110 115 122 123 124 129 134 136 139 147 135 126 107 88 79 74 69 65 63 61 58 55 50 53 53 52
88 87 85 86 87 86 91 98 99 102 106 112 120 125 124 129 134 136 137 142 148 149 136 119 99 85 78 74 68 65 62 58 55 54 50 49 51 54
86 87 90 91 95 99 101 102 106 110 116 121 126 128 132 134 139 140 145 147 153 150 140 116 96 85 78 72 67 61 57 56 53 51 49 47 49 51
91 93 95 95 99 102 107 109 116 121 122 126 129 133 135 139 139 145 149 150 156 149 135 103 94 86 78 67 62 58 56 55 53 50 47 47 47 47
99 100 100 105 107 110 115 119 122 123 128 135 133 136 142 146 150 152 153 155 155 139 113 99 91 83 72 64 56 52 52 52 52 49 46 47 47 50
104 107 108 109 112 115 119 123 126 131 137 139 141 142 146 146 150 154 157 159 139 127 102 95 87 77 64 57 52 48 49 49 49 49 45 47 48 49
113 115 118 122 124 126 126 130 135 138 141 144 146 147 151 153 151 155 161 152 129 103 95 90 81 68 59 51 48 46 46 46 46 47 46 45 47 49
123 124 126 128 129 134 134 140 143 144 146 148 150 149 151 153 156 161 151 133 107 97 90 84 73 62 54 48 43 41 41 41 42 44 45 45 46 45
131 132 135 138 139 142 146 146 150 151 150 147 148 151 160 160 161 155 135 104 96 90 86 77 67 56 50 45 40 37 36 38 39 40 42 42 43 45
139 142 145 148 149 148 148 149 151 155 150 152 152 161 160 157 147 127 108 95 89 85 78 68 57 49 45 41 39 36 34 35 37 38 37 38 40 40
147 148 148 147 148 150 148 150 150 155 155 157 155 154 155 137 132 104 94 88 83 77 68 57 49 45 43 39 38 35 33 33 31 33 36 37 39 40
146 150 153 155 153 151 150 149 149 155 163 160 151 142 132 118 98 91 87 83 77 67 57 51 45 42 39 38 35 34 33 32 30 33 34 36 37 41
155 159 160 160 157 156 159 161 164 155 154 138 127 127 107 97 92 85 82 76 67 57 51 48 43 40 38 36 35 32 32 32 32 34 35 36 38 40
162 159 159 156 153 152 152 154 150 138 136 119 104 97 95 91 86 81 75 66 59 50 48 46 42 39 35 35 33 32 32 32 33 33 34 36 38 38
146 145 143 141 147 144 135 134 129 116 107 99 94 92 89 85 82 74 68 60 52 47 46 45 42 39 37 33 31 31 31 31 32 33 35 36 37 39
136 131 126 123 126 125 117 110 104 99 96 90 86 84 83 80 77 67 61 55 48 45 45 44 42 40 38 37 33 30 31 34 35 35 36 37 37 38
120 117 115 113 110 105 103 99 94 92 89 84 81 80 79 75 71 64 57 51 47 45 45 44 42 41 41 39 36 31 31 33 36 37 38 39 40 40
109 107 106 102 98 94 91 89 87 85 84 80 78 77 74 70 66 60 54 48 45 46 45 44 43 44 43 42 40 35 34 34 34 35 38 40 41 43
103 101 98 94 91 89 87 85 84 83 81 80 78 73 69 66 62 55 51 49 46 46 46 45 45 46 45 44 45 43 40 38 37 38 39 41 44 47
97 95 93 90 88 85 84 82 81 80 78 75 72 70 67 64 59 54 51 50 49 48 47 46 46 46 48 47 46 47 47 45 43 43 44 43 42 42

GFSNE_250_spd_120.txt.gz
Wind_Speed
74 73 70 68 68 74 70 73 78 75 75 79 82 81 84 74 79 82 84 92 97 104 112 115 128 128 133 137 139 117 86 68 59 55 54 51 48 43
73 73 70 72 73 72 77 75 73 73 82 87 88 87 83 87 85 92 101 102 107 119 119 128 135 140 138 138 141 117 88 72 63 58 53 52 47 44
76 74 73 73 75 80 80 76 78 80 88 91 89 89 87 95 97 104 108 112 118 124 126 138 144 145 147 141 145 111 85 75 66 59 54 51 47 43
77 76 79 80 81 85 87 87 88 87 89 90 90 92 93 100 106 108 113 121 118 125 133 136 146 150 147 147 150 107 84 73 67 58 53 50 47 42
91 88 88 87 88 86 86 87 87 89 91 93 91 96 102 106 107 111 118 121 126 134 142 145 149 148 147 157 137 104 87 75 65 57 50 48 45 42
91 85 87 89 89 93 93 94 95 94 101 96 98 102 104 109 115 121 124 128 134 137 144 148 147 145 151 148 125 93 85 75 62 53 48 46 45 43
86 90 92 94 95 97 100 98 101 101 104 101 103 106 108 114 121 127 131 134 137 142 148 139 146 150 156 133 113 91 81 70 57 50 46 45 45 44
98 97 101 104 100 101 98 99 100 99 102 103 107 110 118 122 130 133 136 138 140 148 150 144 155 156 143 127 99 88 78 63 53 47 44 43 45 45
100 107 107 101 97 102 105 103 102 103 108 110 115 122 128 130 135 139 144 142 145 152 149 155 153 152 131 123 94 85 74 58 49 43 41 43 43 45
99 101 104 106 107 108 109 107 107 112 116 122 126 127 135 137 143 147 147 145 147 147 148 154 154 140 128 98 87 79 66 53 45 40 38 39 41 43
101 105 106 107 103 110 118 117 125 126 127 131 134 137 140 141 146 149 149 148 152 158 152 153 143 136 110 92 83 71 57 47 43 39 36 38 38 42
114 116 116 117 122 125 127 129 133 136 136 135 138 142 144 148 150 151 149 151 160 148 156 141 124 109 91 84 74 62 51 45 40 36 34 34 37 40
121 124 126 128 129 132 134 139 139 139 142 142 143 147 150 151 156 155 153 159 154 143 153 123 110 92 83 76 64 54 47 41 36 33 29 30 34 38
136 139 142 142 141 142 141 142 142 145 147 150 152 152 155 154 159 162 160 156 153 147 115 111 98 83 76 66 55 50 44 39 33 28 28 30 32 37
143 144 144 145 148 150 151 151 154 154 156 154 155 159 161 163 164 163 155 152 146 120 115 93 84 75 68 58 50 46 41 37 32 27 28 31 33 34
149 150 151 149 150 154 154 161 161 159 159 161 161 157 156 163 152 154 151 144 126 109 91 84 77 68 59 52 46 42 40 36 32 28 28 31 32 34
157 157 157 158 157 158 158 159 160 156 158 161 159 156 161 159 157 143 127 126 102 89 83 76 70 60 53 48 44 39 37 34 32 30 29 31 32 34
165 158 157 155 157 163 162 161 159 158 152 146 154 148 153 145 135 120 104 94 89 82 76 71 62 53 48 45 42 40 36 33 31 30 30 31 33 34
164 160 160 156 149 149 159 153 148 144 145 149 159 149 135 125 107 97 91 86 80 75 68 62 56 49 47 44 43 40 37 33 32 32 31 32 34 35
153 153 146 147 149 147 143 142 141 136 136 133 124 120 112 101 91 87 84 79 73 68 63 56 51 48 47 44 41 39 38 37 35 33 32 32 31 34
148 147 147 145 144 139 136 136 133 127 121 114 107 101 95 89 86 83 79 74 67 62 56 51 49 48 47 45 42 40 40 41 39 37 35 34 34 37
136 134 133 131 128 125 123 121 115 111 104 101 97 91 84 81 78 75 72 68 63 59 55 51 49 48 48 47 44 43 43 43 42 42 41 40 37 37
127 126 123 119 117 115 112 107 104 100 97 94 90 84 80 77 74 70 67 63 61 60 56 52 50 50 50 49 47 45 45 46 45 45 47 46 45 43

GFSNE_250_spd_126.txt.gz
Wind_Speed
56 54 61 65 71 74 78 81 80 82 77 76 78 73 71 69 73 74 74 78 79 80 79 81 84 87 90 93 93 99 104 113 118 127 124 102 97 76
61 61 65 71 78 79 82 82 80 83 78 77 74 74 70 70 72 77 79 82 82 82 84 86 86 92 95 95 100 102 106 113 130 124 126 112 97 76
63 64 69 79 84 85 85 83 81 82 80 78 79 77 73 72 78 80 83 86 87 86 87 89 91 94 97 102 105 108 113 120 131 128 132 104 98 81
64 66 78 79 82 85 85 83 85 87 85 82 77 77 77 83 83 84 84 85 87 89 94 95 96 100 104 106 104 112 115 124 137 131 127 103 93 67
72 71 78 85 86 87 88 88 90 89 85 83 84 84 87 88 87 88 90 88 92 96 93 98 100 104 105 106 112 120 124 128 141 137 117 94 80 63
72 74 78 82 84 86 91 93 93 92 89 88 87 90 91 92 92 90 94 95 97 100 99 101 103 105 103 113 120 131 136 142 136 138 116 89 82 54
81 81 84 87 90 91 92 92 92 91 93 92 93 95 94 94 94 100 100 100 101 102 100 102 104 109 111 120 129 133 141 139 137 128 103 86 63 53
84 87 89 93 96 95 95 97 103 96 96 98 98 97 99 99 101 101 102 103 100 103 103 108 110 113 110 128 135 138 137 143 131 121 98 76 58 56
91 90 89 92 96 97 99 100 103 99 96 98 100 100 101 104 102 105 105 105 106 105 111 113 112 116 128 133 140 145 143 138 126 118 94 69 56 49
94 93 93 96 98 96 99 97 99 103 102 101 101 101 104 105 107 109 109 111 108 112 114 114 115 125 130 141 142 144 135 134 132 109 78 59 53 46
99 99 103 104 105 103 103 107 102 105 104 105 105 104 107 109 109 112 113 112 113 115 116 120 130 132 138 142 149 140 144 136 120 109 69 52 48 42
109 109 111 110 109 112 109 109 107 109 110 110 109 108 109 111 114 114 113 117 117 122 123 129 134 138 144 148 144 142 138 133 119 77 60 49 45 39
113 109 112 113 112 111 108 107 108 109 111 107 108 112 113 114 116 118 118 123 125 128 134 136 143 145 149 146 141 132 126 121 94 66 55 47 42 37
118 119 119 116 117 117 117 116 116 113 112 112 114 117 121 124 125 128 134 134 134 139 140 142 140 138 146 136 135 124 119 102 70 54 49 43 39 35
127 129 132 129 131 129 131 132 130 126 128 131 131 135 136 137 136 134 140 140 143 144 147 146 143 139 136 124 125 118 103 70 54 49 45 40 38 34
134 136 138 140 139 139 140 140 140 142 140 139 142 143 144 141 141 144 147 146 150 150 153 138 140 139 124 120 122 103 80 58 48 47 45 40 36 33
137 138 139 140 140 141 141 144 146 146 145 146 147 148 149 151 153 152 157 156 156 141 141 137 130 99 109 121 98 74 60 49 47 46 43 39 34 33
150 150 153 157 156 154 154 157 158 155 159 160 161 160 162 163 161 160 161 155 154 136 138 130 120 114 119 98 64 58 51 45 46 44 41 38 34 35
166 170 169 168 167 171 170 168 169 169 173 173 173 172 166 163 162 159 152 146 148 141 129 115 93 75 69 59 55 51 47 44 45 43 40 37 36 37
146 155 164 170 173 174 175 178 181 173 165 169 167 163 163 155 136 133 128 121 114 101 89 79 67 61 56 51 50 47 45 44 44 42 40 38 38 40
125 124 126 128 132 136 139 139 139 140 139 137 130 125 120 117 109 103 97 89 78 74 66 58 54 53 50 50 48 45 46 45 42 39 39 38 39 42
103 104 106 106 108 109 108 109 108 106 107 104 107 103 100 93 89 84 77 70 67 63 58 53 50 50 50 49 48 44 45 45 43 42 41 40 40 44
86 88 89 91 90 91 93 96 96 93 92 91 93 89 86 82 78 74 68 66 64 61 56 52 49 49 48 50 48 45 46 47 48 47 45 44 43 44